Wetterdaten: Mittwoch, 12.03.2014
Datum Zeit Temp. Aussen +5cm Feuchte Auss Luftdruck Regen Sonnenschein Regendauer UV Solar Windben
12.03.2014 00:00 6,8 C 5,0 C 90 % 1032,0 hPa 0,0 l/m 0 min 0 min 0,0 UV-I 0 W/m 0,0 km/h (0 Bft)
12.03.2014 00:02 6,7 C 5,0 C 90 % 1032,1 hPa 0,0 l/m 0 min 0 min 0,0 UV-I 0 W/m 0,0 km/h (0 Bft)
12.03.2014 00:06 6,7 C 4,4 C 91 % 1032,0 hPa 0,0 l/m 0 min 0 min 0,0 UV-I 0 W/m 0,0 km/h (0 Bft)
12.03.2014 00:08 6,7 C 4,4 C 91 % 1032,0 hPa 0,0 l/m 0 min 0 min 0,0 UV-I 0 W/m 0,0 km/h (0 Bft)
12.03.2014 00:10 6,6 C 4,4 C 91 % 1032,0 hPa 0,0 l/m 0 min 0 min 0,0 UV-I 0 W/m 0,0 km/h (0 Bft)
12.03.2014 00:12 6,6 C 4,4 C 91 % 1032,0 hPa 0,0 l/m 0 min 0 min 0,0 UV-I 0 W/m 0,0 km/h (0 Bft)
12.03.2014 00:14 6,7 C 4,4 C 91 % 1032,0 hPa 0,0 l/m 0 min 0 min 0,0 UV-I 0 W/m 0,0 km/h (0 Bft)
12.03.2014 00:16 6,7 C 4,4 C 91 % 1032,0 hPa 0,0 l/m 0 min 0 min 0,0 UV-I 0 W/m 0,0 km/h (0 Bft)
12.03.2014 00:18 6,7 C 4,4 C 91 % 1032,0 hPa 0,0 l/m 0 min 0 min 0,0 UV-I 0 W/m 0,0 km/h (0 Bft)
12.03.2014 00:20 6,6 C 4,4 C 91 % 1032,0 hPa 0,0 l/m 0 min 0 min 0,0 UV-I 0 W/m 0,0 km/h (0 Bft)
12.03.2014 00:22 6,6 C 4,4 C 91 % 1031,9 hPa 0,0 l/m 0 min 0 min 0,0 UV-I 0 W/m 0,0 km/h (0 Bft)
12.03.2014 00:24 6,5 C 4,4 C 91 % 1031,8 hPa 0,0 l/m 0 min 0 min 0,0 UV-I 0 W/m 0,0 km/h (0 Bft)
12.03.2014 00:26 6,5 C 4,4 C 91 % 1031,8 hPa 0,0 l/m 0 min 0 min 0,0 UV-I 0 W/m 0,0 km/h (0 Bft)
12.03.2014 00:28 6,4 C 4,4 C 91 % 1031,9 hPa 0,0 l/m 0 min 0 min 0,0 UV-I 0 W/m 0,0 km/h (0 Bft)
12.03.2014 00:30 6,4 C 4,4 C 91 % 1031,7 hPa 0,0 l/m 0 min 0 min 0,0 UV-I 0 W/m 0,0 km/h (0 Bft)
12.03.2014 00:32 6,3 C 4,4 C 91 % 1031,7 hPa 0,0 l/m 0 min 0 min 0,0 UV-I 0 W/m 0,0 km/h (0 Bft)
12.03.2014 00:34 6,3 C 4,4 C 91 % 1031,7 hPa 0,0 l/m 0 min 0 min 0,0 UV-I 0 W/m 0,0 km/h (0 Bft)
12.03.2014 00:36 6,3 C 4,4 C 91 % 1031,7 hPa 0,0 l/m 0 min 0 min 0,0 UV-I 0 W/m 0,0 km/h (0 Bft)
12.03.2014 00:38 6,2 C 3,9 C 91 % 1031,7 hPa 0,0 l/m 0 min 0 min 0,0 UV-I 0 W/m 0,0 km/h (0 Bft)
12.03.2014 00:40 6,1 C 3,9 C 91 % 1031,6 hPa 0,0 l/m 0 min 0 min 0,0 UV-I 0 W/m 0,0 km/h (0 Bft)
12.03.2014 00:42 6,1 C 3,9 C 91 % 1031,6 hPa 0,0 l/m 0 min 0 min 0,0 UV-I 0 W/m 0,0 km/h (0 Bft)
12.03.2014 00:44 6,0 C 3,9 C 91 % 1031,6 hPa 0,0 l/m 0 min 0 min 0,0 UV-I 0 W/m 0,0 km/h (0 Bft)
12.03.2014 00:46 6,0 C 3,9 C 92 % 1031,6 hPa 0,0 l/m 0 min 0 min 0,0 UV-I 0 W/m 0,0 km/h (0 Bft)
12.03.2014 00:48 5,9 C 3,9 C 91 % 1031,5 hPa 0,0 l/m 0 min 0 min 0,0 UV-I 0 W/m 0,0 km/h (0 Bft)
12.03.2014 00:50 5,8 C 3,9 C 91 % 1031,5 hPa 0,0 l/m 0 min 0 min 0,0 UV-I 0 W/m 0,0 km/h (0 Bft)
12.03.2014 00:52 5,8 C 3,9 C 92 % 1031,5 hPa 0,0 l/m 0 min 0 min 0,0 UV-I 0 W/m 0,0 km/h (0 Bft)
12.03.2014 00:54 5,7 C 3,9 C 92 % 1031,5 hPa 0,0 l/m 0 min 0 min 0,0 UV-I 0 W/m 0,0 km/h (0 Bft)
12.03.2014 00:56 5,7 C 3,3 C 92 % 1031,5 hPa 0,0 l/m 0 min 0 min 0,0 UV-I 0 W/m 0,0 km/h (0 Bft)
12.03.2014 00:58 5,6 C 3,3 C 92 % 1031,5 hPa 0,0 l/m 0 min 0 min 0,0 UV-I 0 W/m 0,0 km/h (0 Bft)
12.03.2014 01:00 5,6 C 3,3 C 92 % 1031,4 hPa 0,0 l/m 0 min 0 min 0,0 UV-I 0 W/m 0,0 km/h (0 Bft)
12.03.2014 01:02 5,4 C 3,3 C 92 % 1031,5 hPa 0,0 l/m 0 min 0 min 0,0 UV-I 0 W/m 0,0 km/h (0 Bft)
12.03.2014 01:04 5,4 C 3,3 C 92 % 1031,5 hPa 0,0 l/m 0 min 0 min 0,0 UV-I 0 W/m 0,0 km/h (0 Bft)
12.03.2014 01:06 5,4 C 3,3 C 93 % 1031,5 hPa 0,0 l/m 0 min 0 min 0,0 UV-I 0 W/m 0,0 km/h (0 Bft)
12.03.2014 01:08 5,4 C 3,3 C 93 % 1031,6 hPa 0,0 l/m 0 min 0 min 0,0 UV-I 0 W/m 0,0 km/h (0 Bft)
12.03.2014 01:10 5,4 C 3,3 C 93 % 1031,5 hPa 0,0 l/m 0 min 0 min 0,0 UV-I 0 W/m 0,0 km/h (0 Bft)
12.03.2014 01:12 5,4 C 3,3 C 93 % 1031,5 hPa 0,0 l/m 0 min 0 min 0,0 UV-I 0 W/m 0,0 km/h (0 Bft)
12.03.2014 01:14 5,4 C 3,3 C 93 % 1031,5 hPa 0,0 l/m 0 min 0 min 0,0 UV-I 0 W/m 0,0 km/h (0 Bft)
12.03.2014 01:16 5,4 C 3,3 C 93 % 1031,5 hPa 0,0 l/m 0 min 0 min 0,0 UV-I 0 W/m 0,0 km/h (0 Bft)
12.03.2014 01:18 5,3 C 3,3 C 93 % 1031,5 hPa 0,0 l/m 0 min 0 min 0,0 UV-I 0 W/m 0,0 km/h (0 Bft)
12.03.2014 01:20 5,3 C 3,3 C 93 % 1031,5 hPa 0,0 l/m 0 min 0 min 0,0 UV-I 0 W/m 0,0 km/h (0 Bft)
12.03.2014 01:22 5,2 C 3,3 C 93 % 1031,5 hPa 0,0 l/m 0 min 0 min 0,0 UV-I 0 W/m 0,0 km/h (0 Bft)
12.03.2014 01:24 5,3 C 2,8 C 93 % 1031,5 hPa 0,0 l/m 0 min 0 min 0,0 UV-I 0 W/m 0,0 km/h (0 Bft)
12.03.2014 01:26 5,2 C 2,8 C 93 % 1031,4 hPa 0,0 l/m 0 min 0 min 0,0 UV-I 0 W/m 0,0 km/h (0 Bft)
12.03.2014 01:28 5,2 C 2,8 C 93 % 1031,4 hPa 0,0 l/m 0 min 0 min 0,0 UV-I 0 W/m 0,0 km/h (0 Bft)
12.03.2014 01:30 5,1 C 2,8 C 93 % 1031,5 hPa 0,0 l/m 0 min 0 min 0,0 UV-I 0 W/m 0,0 km/h (0 Bft)
12.03.2014 01:32 5,1 C 2,8 C 93 % 1031,4 hPa 0,0 l/m 0 min 0 min 0,0 UV-I 0 W/m 0,0 km/h (0 Bft)
12.03.2014 01:34 5,1 C 2,8 C 93 % 1031,4 hPa 0,0 l/m 0 min 0 min 0,0 UV-I 0 W/m 0,0 km/h (0 Bft)
12.03.2014 01:36 5,1 C 2,8 C 93 % 1031,5 hPa 0,0 l/m 0 min 0 min 0,0 UV-I 0 W/m 0,0 km/h (0 Bft)
12.03.2014 01:38 5,0 C 2,8 C 93 % 1031,5 hPa 0,0 l/m 0 min 0 min 0,0 UV-I 0 W/m 0,0 km/h (0 Bft)
12.03.2014 01:40 4,9 C 2,8 C 93 % 1031,5 hPa 0,0 l/m 0 min 0 min 0,0 UV-I 0 W/m 0,0 km/h (0 Bft)
12.03.2014 01:42 4,9 C 2,8 C 93 % 1031,4 hPa 0,0 l/m 0 min 0 min 0,0 UV-I 0 W/m 0,0 km/h (0 Bft)
12.03.2014 01:44 4,9 C 2,8 C 93 % 1031,5 hPa 0,0 l/m 0 min 0 min 0,0 UV-I 0 W/m 0,0 km/h (0 Bft)
12.03.2014 01:46 4,9 C 2,8 C 93 % 1031,5 hPa 0,0 l/m 0 min 0 min 0,0 UV-I 0 W/m 0,0 km/h (0 Bft)
12.03.2014 01:48 5,0 C 2,8 C 94 % 1031,4 hPa 0,0 l/m 0 min 0 min 0,0 UV-I 0 W/m 0,0 km/h (0 Bft)
12.03.2014 01:50 4,9 C 2,8 C 94 % 1031,4 hPa 0,0 l/m 0 min 0 min 0,0 UV-I 0 W/m 0,0 km/h (0 Bft)
12.03.2014 01:52 5,0 C 2,8 C 94 % 1031,4 hPa 0,0 l/m 0 min 0 min 0,0 UV-I 0 W/m 0,0 km/h (0 Bft)
12.03.2014 01:54 4,9 C 2,8 C 94 % 1031,5 hPa 0,0 l/m 0 min 0 min 0,0 UV-I 0 W/m 0,0 km/h (0 Bft)
12.03.2014 01:56 4,9 C 2,8 C 94 % 1031,5 hPa 0,0 l/m 0 min 0 min 0,0 UV-I 0 W/m 0,0 km/h (0 Bft)
12.03.2014 01:58 4,9 C 2,8 C 94 % 1031,6 hPa 0,0 l/m 0 min 0 min 0,0 UV-I 0 W/m 0,0 km/h (0 Bft)
12.03.2014 02:00 4,9 C 2,8 C 94 % 1031,5 hPa 0,0 l/m 0 min 0 min 0,0 UV-I 0 W/m 0,0 km/h (0 Bft)
12.03.2014 02:02 4,9 C 2,8 C 94 % 1031,4 hPa 0,0 l/m 0 min 0 min 0,0 UV-I 0 W/m 0,0 km/h (0 Bft)
12.03.2014 02:04 4,9 C 2,8 C 94 % 1031,6 hPa 0,0 l/m 0 min 0 min 0,0 UV-I 0 W/m 0,0 km/h (0 Bft)
12.03.2014 02:06 4,9 C 2,8 C 94 % 1031,6 hPa 0,0 l/m 0 min 0 min 0,0 UV-I 0 W/m 0,0 km/h (0 Bft)
12.03.2014 02:08 4,9 C 2,8 C 94 % 1031,5 hPa 0,0 l/m 0 min 0 min 0,0 UV-I 0 W/m 0,0 km/h (0 Bft)
12.03.2014 02:10 4,8 C 2,8 C 94 % 1031,5 hPa 0,0 l/m 0 min 0 min 0,0 UV-I 0 W/m 0,0 km/h (0 Bft)
12.03.2014 02:12 4,8 C 2,8 C 94 % 1031,5 hPa 0,0 l/m 0 min 0 min 0,0 UV-I 0 W/m 0,0 km/h (0 Bft)
12.03.2014 02:14 4,8 C 2,8 C 94 % 1031,5 hPa 0,0 l/m 0 min 0 min 0,0 UV-I 0 W/m 0,0 km/h (0 Bft)
12.03.2014 02:16 4,7 C 2,8 C 94 % 1031,5 hPa 0,0 l/m 0 min 0 min 0,0 UV-I 0 W/m 0,0 km/h (0 Bft)
12.03.2014 02:18 4,7 C 2,8 C 94 % 1031,5 hPa 0,0 l/m 0 min 0 min 0,0 UV-I 0 W/m 0,0 km/h (0 Bft)
12.03.2014 02:20 4,6 C 2,8 C 94 % 1031,5 hPa 0,0 l/m 0 min 0 min 0,0 UV-I 0 W/m 0,0 km/h (0 Bft)
12.03.2014 02:22 4,7 C 2,8 C 94 % 1031,5 hPa 0,0 l/m 0 min 0 min 0,0 UV-I 0 W/m 0,0 km/h (0 Bft)
12.03.2014 02:24 4,7 C 2,8 C 94 % 1031,5 hPa 0,0 l/m 0 min 0 min 0,0 UV-I 0 W/m 0,0 km/h (0 Bft)
12.03.2014 02:26 4,7 C 2,8 C 94 % 1031,5 hPa 0,0 l/m 0 min 0 min 0,0 UV-I 0 W/m 0,0 km/h (0 Bft)
12.03.2014 02:28 4,7 C 2,8 C 94 % 1031,5 hPa 0,0 l/m 0 min 0 min 0,0 UV-I 0 W/m 0,0 km/h (0 Bft)
12.03.2014 02:30 4,7 C 2,8 C 94 % 1031,5 hPa 0,0 l/m 0 min 0 min 0,0 UV-I 0 W/m 0,0 km/h (0 Bft)
12.03.2014 02:32 4,7 C 2,8 C 94 % 1031,5 hPa 0,0 l/m 0 min 0 min 0,0 UV-I 0 W/m 0,0 km/h (0 Bft)
12.03.2014 02:34 4,7 C 2,8 C 94 % 1031,4 hPa 0,0 l/m 0 min 0 min 0,0 UV-I 0 W/m 0,0 km/h (0 Bft)
12.03.2014 02:36 4,7 C 2,8 C 94 % 1031,4 hPa 0,0 l/m 0 min 0 min 0,0 UV-I 0 W/m 0,0 km/h (0 Bft)
12.03.2014 02:38 4,7 C 2,8 C 94 % 1031,4 hPa 0,0 l/m 0 min 0 min 0,0 UV-I 0 W/m 0,0 km/h (0 Bft)
12.03.2014 02:40 4,7 C 2,8 C 94 % 1031,4 hPa 0,0 l/m 0 min 0 min 0,0 UV-I 0 W/m 0,0 km/h (0 Bft)
12.03.2014 02:42 4,6 C 2,8 C 94 % 1031,4 hPa 0,0 l/m 0 min 0 min 0,0 UV-I 0 W/m 0,0 km/h (0 Bft)
12.03.2014 02:44 4,6 C 2,8 C 94 % 1031,4 hPa 0,0 l/m 0 min 0 min 0,0 UV-I 0 W/m 0,0 km/h (0 Bft)
12.03.2014 02:46 4,7 C 2,8 C 94 % 1031,4 hPa 0,0 l/m 0 min 0 min 0,0 UV-I 0 W/m 0,0 km/h (0 Bft)
12.03.2014 02:48 4,7 C 2,8 C 94 % 1031,4 hPa 0,0 l/m 0 min 0 min 0,0 UV-I 0 W/m 0,0 km/h (0 Bft)
12.03.2014 02:50 4,7 C 2,8 C 94 % 1031,4 hPa 0,0 l/m 0 min 0 min 0,0 UV-I 0 W/m 0,0 km/h (0 Bft)
12.03.2014 02:52 4,8 C 2,8 C 94 % 1031,5 hPa 0,0 l/m 0 min 0 min 0,0 UV-I 0 W/m 2,6 km/h (1 Bft)
12.03.2014 02:54 4,8 C 2,8 C 94 % 1031,4 hPa 0,0 l/m 0 min 0 min 0,0 UV-I 0 W/m 0,0 km/h (0 Bft)
12.03.2014 02:56 4,8 C 2,8 C 94 % 1031,5 hPa 0,0 l/m 0 min 0 min 0,0 UV-I 0 W/m 0,0 km/h (0 Bft)
12.03.2014 02:58 4,8 C 2,8 C 94 % 1031,4 hPa 0,0 l/m 0 min 0 min 0,0 UV-I 0 W/m 0,0 km/h (0 Bft)
12.03.2014 03:00 4,8 C 2,8 C 94 % 1031,4 hPa 0,0 l/m 0 min 0 min 0,0 UV-I 0 W/m 0,0 km/h (0 Bft)
12.03.2014 03:02 4,7 C 2,8 C 94 % 1031,4 hPa 0,0 l/m 0 min 0 min 0,0 UV-I 0 W/m 0,0 km/h (0 Bft)
12.03.2014 03:04 4,7 C 2,8 C 94 % 1031,4 hPa 0,0 l/m 0 min 0 min 0,0 UV-I 0 W/m 0,0 km/h (0 Bft)
12.03.2014 03:06 4,8 C 2,8 C 94 % 1031,4 hPa 0,0 l/m 0 min 0 min 0,0 UV-I 0 W/m 5,1 km/h (1 Bft)
12.03.2014 03:08 4,8 C 3,3 C 94 % 1031,4 hPa 0,0 l/m 0 min 0 min 0,0 UV-I 0 W/m 0,0 km/h (0 Bft)
12.03.2014 03:10 4,9 C 3,3 C 94 % 1031,4 hPa 0,0 l/m 0 min 0 min 0,0 UV-I 0 W/m 0,0 km/h (0 Bft)
12.03.2014 03:12 4,9 C 3,3 C 94 % 1031,4 hPa 0,0 l/m 0 min 0 min 0,0 UV-I 0 W/m 0,0 km/h (0 Bft)
12.03.2014 03:14 4,9 C 2,8 C 94 % 1031,4 hPa 0,0 l/m 0 min 0 min 0,0 UV-I 0 W/m 0,0 km/h (0 Bft)
12.03.2014 03:16 4,9 C 2,8 C 94 % 1031,4 hPa 0,0 l/m 0 min 0 min 0,0 UV-I 0 W/m 0,0 km/h (0 Bft)
12.03.2014 03:18 4,9 C 2,8 C 94 % 1031,4 hPa 0,0 l/m 0 min 0 min 0,0 UV-I 0 W/m 0,0 km/h (0 Bft)
12.03.2014 03:20 4,8 C 2,8 C 94 % 1031,3 hPa 0,0 l/m 0 min 0 min 0,0 UV-I 0 W/m 0,0 km/h (0 Bft)
12.03.2014 03:22 4,8 C 2,8 C 94 % 1031,3 hPa 0,0 l/m 0 min 0 min 0,0 UV-I 0 W/m 0,0 km/h (0 Bft)
12.03.2014 03:24 4,8 C 2,8 C 94 % 1031,3 hPa 0,0 l/m 0 min 0 min 0,0 UV-I 0 W/m 0,0 km/h (0 Bft)
12.03.2014 03:26 4,7 C 2,8 C 94 % 1031,3 hPa 0,0 l/m 0 min 0 min 0,0 UV-I 0 W/m 0,0 km/h (0 Bft)
12.03.2014 03:28 4,6 C 2,8 C 94 % 1031,4 hPa 0,0 l/m 0 min 0 min 0,0 UV-I 0 W/m 0,0 km/h (0 Bft)
12.03.2014 03:30 4,6 C 2,8 C 94 % 1031,3 hPa 0,0 l/m 0 min 0 min 0,0 UV-I 0 W/m 2,6 km/h (1 Bft)
12.03.2014 03:32 4,6 C 2,8 C 94 % 1031,3 hPa 0,0 l/m 0 min 0 min 0,0 UV-I 0 W/m 0,0 km/h (0 Bft)
12.03.2014 03:34 4,6 C 2,8 C 94 % 1031,3 hPa 0,0 l/m 0 min 0 min 0,0 UV-I 0 W/m 0,0 km/h (0 Bft)
12.03.2014 03:36 4,6 C 2,8 C 94 % 1031,4 hPa 0,0 l/m 0 min 0 min 0,0 UV-I 0 W/m 0,0 km/h (0 Bft)
12.03.2014 03:38 4,6 C 2,8 C 94 % 1031,4 hPa 0,0 l/m 0 min 0 min 0,0 UV-I 0 W/m 0,0 km/h (0 Bft)
12.03.2014 03:40 4,6 C 2,8 C 94 % 1031,4 hPa 0,0 l/m 0 min 0 min 0,0 UV-I 0 W/m 0,0 km/h (0 Bft)
12.03.2014 03:42 4,7 C 2,8 C 94 % 1031,4 hPa 0,0 l/m 0 min 0 min 0,0 UV-I 0 W/m 0,0 km/h (0 Bft)
12.03.2014 03:44 4,6 C 2,8 C 94 % 1031,4 hPa 0,0 l/m 0 min 0 min 0,0 UV-I 0 W/m 0,0 km/h (0 Bft)
12.03.2014 03:46 4,6 C 2,8 C 94 % 1031,4 hPa 0,0 l/m 0 min 0 min 0,0 UV-I 0 W/m 0,0 km/h (0 Bft)
12.03.2014 03:48 4,6 C 2,8 C 94 % 1031,4 hPa 0,0 l/m 0 min 0 min 0,0 UV-I 0 W/m 0,0 km/h (0 Bft)
12.03.2014 03:50 4,6 C 2,8 C 94 % 1031,3 hPa 0,0 l/m 0 min 0 min 0,0 UV-I 0 W/m 0,0 km/h (0 Bft)
12.03.2014 03:52 4,4 C 2,2 C 94 % 1031,4 hPa 0,0 l/m 0 min 0 min 0,0 UV-I 0 W/m 0,0 km/h (0 Bft)
12.03.2014 03:54 4,4 C 2,2 C 94 % 1031,4 hPa 0,0 l/m 0 min 0 min 0,0 UV-I 0 W/m 0,0 km/h (0 Bft)
12.03.2014 03:56 4,4 C 2,2 C 94 % 1031,3 hPa 0,0 l/m 0 min 0 min 0,0 UV-I 0 W/m 0,0 km/h (0 Bft)
12.03.2014 03:58 4,3 C 2,2 C 94 % 1031,4 hPa 0,0 l/m 0 min 0 min 0,0 UV-I 0 W/m 0,0 km/h (0 Bft)
12.03.2014 04:00 4,3 C 2,2 C 94 % 1031,4 hPa 0,0 l/m 0 min 0 min 0,0 UV-I 0 W/m 0,0 km/h (0 Bft)
12.03.2014 04:05 4,2 C 2,2 C 94 % 1031,4 hPa 0,0 l/m 0 min 0 min 0,0 UV-I 0 W/m 0,0 km/h (0 Bft)
12.03.2014 04:06 4,1 C 2,2 C 94 % 1031,4 hPa 0,0 l/m 0 min 0 min 0,0 UV-I 0 W/m 0,0 km/h (0 Bft)
12.03.2014 04:08 4,1 C 2,2 C 94 % 1031,4 hPa 0,0 l/m 0 min 0 min 0,0 UV-I 0 W/m 0,0 km/h (0 Bft)
12.03.2014 04:10 4,0 C 1,7 C 94 % 1031,4 hPa 0,0 l/m 0 min 0 min 0,0 UV-I 0 W/m 0,0 km/h (0 Bft)
12.03.2014 04:12 4,0 C 1,7 C 94 % 1031,3 hPa 0,0 l/m 0 min 0 min 0,0 UV-I 0 W/m 0,0 km/h (0 Bft)
12.03.2014 04:14 3,9 C 1,7 C 94 % 1031,4 hPa 0,0 l/m 0 min 0 min 0,0 UV-I 0 W/m 0,0 km/h (0 Bft)
12.03.2014 04:16 3,9 C 1,7 C 94 % 1031,4 hPa 0,0 l/m 0 min 0 min 0,0 UV-I 0 W/m 0,0 km/h (0 Bft)
12.03.2014 04:18 3,8 C 1,7 C 94 % 1031,4 hPa 0,0 l/m 0 min 0 min 0,0 UV-I 0 W/m 0,0 km/h (0 Bft)
12.03.2014 04:20 3,8 C 1,7 C 94 % 1031,4 hPa 0,0 l/m 0 min 0 min 0,0 UV-I 0 W/m 0,0 km/h (0 Bft)
12.03.2014 04:22 3,7 C 1,7 C 94 % 1031,4 hPa 0,0 l/m 0 min 0 min 0,0 UV-I 0 W/m 0,0 km/h (0 Bft)
12.03.2014 04:24 3,6 C 1,7 C 94 % 1031,3 hPa 0,0 l/m 0 min 0 min 0,0 UV-I 0 W/m 0,0 km/h (0 Bft)
12.03.2014 04:26 3,6 C 1,7 C 94 % 1031,4 hPa 0,0 l/m 0 min 0 min 0,0 UV-I 0 W/m 0,0 km/h (0 Bft)
12.03.2014 04:28 3,7 C 1,7 C 94 % 1031,3 hPa 0,0 l/m 0 min 0 min 0,0 UV-I 0 W/m 0,0 km/h (0 Bft)
12.03.2014 04:30 3,7 C 1,7 C 94 % 1031,4 hPa 0,0 l/m 0 min 0 min 0,0 UV-I 0 W/m 0,0 km/h (0 Bft)
12.03.2014 04:32 3,7 C 1,7 C 94 % 1031,3 hPa 0,0 l/m 0 min 0 min 0,0 UV-I 0 W/m 0,0 km/h (0 Bft)
12.03.2014 04:34 3,7 C 1,7 C 94 % 1031,3 hPa 0,0 l/m 0 min 0 min 0,0 UV-I 0 W/m 0,0 km/h (0 Bft)
12.03.2014 04:36 3,7 C 1,7 C 94 % 1031,3 hPa 0,0 l/m 0 min 0 min 0,0 UV-I 0 W/m 0,0 km/h (0 Bft)
12.03.2014 04:38 3,7 C 1,7 C 94 % 1031,3 hPa 0,0 l/m 0 min 0 min 0,0 UV-I 0 W/m 0,0 km/h (0 Bft)
12.03.2014 04:40 3,6 C 1,7 C 94 % 1031,3 hPa 0,0 l/m 0 min 0 min 0,0 UV-I 0 W/m 0,0 km/h (0 Bft)
12.03.2014 04:42 3,6 C 1,7 C 95 % 1031,3 hPa 0,0 l/m 0 min 0 min 0,0 UV-I 0 W/m 0,0 km/h (0 Bft)
12.03.2014 04:44 3,6 C 1,7 C 95 % 1031,3 hPa 0,0 l/m 0 min 0 min 0,0 UV-I 0 W/m 0,0 km/h (0 Bft)
12.03.2014 04:46 3,6 C 1,7 C 95 % 1031,3 hPa 0,0 l/m 0 min 0 min 0,0 UV-I 0 W/m 0,0 km/h (0 Bft)
12.03.2014 04:48 3,6 C 1,7 C 95 % 1031,3 hPa 0,0 l/m 0 min 0 min 0,0 UV-I 0 W/m 0,0 km/h (0 Bft)
12.03.2014 04:50 3,6 C 1,7 C 95 % 1031,3 hPa 0,0 l/m 0 min 0 min 0,0 UV-I 0 W/m 0,0 km/h (0 Bft)
12.03.2014 04:52 3,5 C 1,7 C 95 % 1031,3 hPa 0,0 l/m 0 min 0 min 0,0 UV-I 0 W/m 0,0 km/h (0 Bft)
12.03.2014 04:54 3,4 C 1,7 C 95 % 1031,2 hPa 0,0 l/m 0 min 0 min 0,0 UV-I 0 W/m 0,0 km/h (0 Bft)
12.03.2014 04:56 3,4 C 1,7 C 95 % 1031,3 hPa 0,0 l/m 0 min 0 min 0,0 UV-I 0 W/m 0,0 km/h (0 Bft)
12.03.2014 04:58 3,4 C 1,7 C 95 % 1031,3 hPa 0,0 l/m 0 min 0 min 0,0 UV-I 0 W/m 0,0 km/h (0 Bft)
12.03.2014 05:00 3,4 C 1,7 C 95 % 1031,3 hPa 0,0 l/m 0 min 0 min 0,0 UV-I 0 W/m 0,0 km/h (0 Bft)
12.03.2014 05:02 3,4 C 1,7 C 95 % 1031,3 hPa 0,0 l/m 0 min 0 min 0,0 UV-I 0 W/m 0,0 km/h (0 Bft)
12.03.2014 05:04 3,4 C 1,7 C 95 % 1031,2 hPa 0,0 l/m 0 min 0 min 0,0 UV-I 0 W/m 0,0 km/h (0 Bft)
12.03.2014 05:06 3,4 C 1,7 C 95 % 1031,2 hPa 0,0 l/m 0 min 0 min 0,0 UV-I 0 W/m 0,0 km/h (0 Bft)
12.03.2014 05:08 3,4 C 1,7 C 95 % 1031,2 hPa 0,0 l/m 0 min 0 min 0,0 UV-I 0 W/m 0,0 km/h (0 Bft)
12.03.2014 05:10 3,4 C 1,7 C 95 % 1031,3 hPa 0,0 l/m 0 min 0 min 0,0 UV-I 0 W/m 0,0 km/h (0 Bft)
12.03.2014 05:12 3,4 C 1,7 C 95 % 1031,2 hPa 0,0 l/m 0 min 0 min 0,0 UV-I 0 W/m 0,0 km/h (0 Bft)
12.03.2014 05:14 3,4 C 1,7 C 95 % 1031,2 hPa 0,0 l/m 0 min 0 min 0,0 UV-I 0 W/m 0,0 km/h (0 Bft)
12.03.2014 05:16 3,4 C 1,7 C 95 % 1031,2 hPa 0,0 l/m 0 min 0 min 0,0 UV-I 0 W/m 0,0 km/h (0 Bft)
12.03.2014 05:18 3,4 C 1,7 C 95 % 1031,3 hPa 0,0 l/m 0 min 0 min 0,0 UV-I 0 W/m 0,0 km/h (0 Bft)
12.03.2014 05:20 3,4 C 1,7 C 95 % 1031,3 hPa 0,0 l/m 0 min 0 min 0,0 UV-I 0 W/m 0,0 km/h (0 Bft)
12.03.2014 05:22 3,4 C 1,7 C 95 % 1031,3 hPa 0,0 l/m 0 min 0 min 0,0 UV-I 0 W/m 0,0 km/h (0 Bft)
12.03.2014 05:24 3,5 C 1,7 C 95 % 1031,3 hPa 0,0 l/m 0 min 0 min 0,0 UV-I 0 W/m 0,0 km/h (0 Bft)
12.03.2014 05:26 3,5 C 1,7 C 95 % 1031,3 hPa 0,0 l/m 0 min 0 min 0,0 UV-I 0 W/m 0,0 km/h (0 Bft)
12.03.2014 05:28 3,6 C 1,7 C 95 % 1031,3 hPa 0,0 l/m 0 min 0 min 0,0 UV-I 0 W/m 0,0 km/h (0 Bft)
12.03.2014 05:30 3,6 C 1,7 C 95 % 1031,3 hPa 0,0 l/m 0 min 0 min 0,0 UV-I 0 W/m 0,0 km/h (0 Bft)
12.03.2014 05:32 3,7 C 1,7 C 95 % 1031,3 hPa 0,0 l/m 0 min 0 min 0,0 UV-I 0 W/m 0,0 km/h (0 Bft)
12.03.2014 05:34 3,7 C 1,7 C 95 % 1031,3 hPa 0,0 l/m 0 min 0 min 0,0 UV-I 0 W/m 0,0 km/h (0 Bft)
12.03.2014 05:36 3,6 C 1,7 C 95 % 1031,3 hPa 0,0 l/m 0 min 0 min 0,0 UV-I 0 W/m 0,0 km/h (0 Bft)
12.03.2014 05:38 3,6 C 1,7 C 95 % 1031,3 hPa 0,0 l/m 0 min 0 min 0,0 UV-I 0 W/m 0,0 km/h (0 Bft)
12.03.2014 05:40 3,6 C 1,7 C 95 % 1031,4 hPa 0,0 l/m 0 min 0 min 0,0 UV-I 0 W/m 0,0 km/h (0 Bft)
12.03.2014 05:42 3,5 C 1,7 C 95 % 1031,4 hPa 0,0 l/m 0 min 0 min 0,0 UV-I 0 W/m 0,0 km/h (0 Bft)
12.03.2014 05:44 3,5 C 1,7 C 95 % 1031,4 hPa 0,0 l/m 0 min 0 min 0,0 UV-I 0 W/m 0,0 km/h (0 Bft)
12.03.2014 05:46 3,6 C 1,7 C 96 % 1031,5 hPa 0,0 l/m 0 min 0 min 0,0 UV-I 0 W/m 0,0 km/h (0 Bft)
12.03.2014 05:48 3,6 C 1,7 C 96 % 1031,5 hPa 0,0 l/m 0 min 0 min 0,0 UV-I 0 W/m 0,0 km/h (0 Bft)
12.03.2014 05:50 3,7 C 2,2 C 95 % 1031,4 hPa 0,0 l/m 0 min 0 min 0,0 UV-I 0 W/m 0,0 km/h (0 Bft)
12.03.2014 05:52 3,7 C 2,2 C 95 % 1031,4 hPa 0,0 l/m 0 min 0 min 0,0 UV-I 0 W/m 0,0 km/h (0 Bft)
12.03.2014 05:54 3,7 C 2,2 C 96 % 1031,5 hPa 0,0 l/m 0 min 0 min 0,0 UV-I 0 W/m 0,0 km/h (0 Bft)
12.03.2014 05:56 3,7 C 2,2 C 96 % 1031,5 hPa 0,0 l/m 0 min 0 min 0,0 UV-I 0 W/m 0,0 km/h (0 Bft)
12.03.2014 05:58 3,7 C 2,2 C 96 % 1031,5 hPa 0,0 l/m 0 min 0 min 0,0 UV-I 0 W/m 0,0 km/h (0 Bft)
12.03.2014 06:00 3,8 C 2,2 C 96 % 1031,5 hPa 0,0 l/m 0 min 0 min 0,0 UV-I 0 W/m 0,0 km/h (0 Bft)
12.03.2014 06:02 3,8 C 2,2 C 96 % 1031,5 hPa 0,0 l/m 0 min 0 min 0,0 UV-I 0 W/m 0,0 km/h (0 Bft)
12.03.2014 06:04 3,8 C 2,2 C 96 % 1031,5 hPa 0,0 l/m 0 min 0 min 0,0 UV-I 0 W/m 0,0 km/h (0 Bft)
12.03.2014 06:06 3,8 C 2,2 C 96 % 1031,5 hPa 0,0 l/m 0 min 0 min 0,0 UV-I 0 W/m 0,0 km/h (0 Bft)
12.03.2014 06:08 3,8 C 2,2 C 96 % 1031,5 hPa 0,0 l/m 0 min 0 min 0,0 UV-I 0 W/m 0,0 km/h (0 Bft)
12.03.2014 06:10 3,8 C 2,2 C 96 % 1031,5 hPa 0,0 l/m 0 min 0 min 0,0 UV-I 0 W/m 0,0 km/h (0 Bft)
12.03.2014 06:12 3,8 C 2,2 C 96 % 1031,6 hPa 0,0 l/m 0 min 0 min 0,0 UV-I 0 W/m 0,0 km/h (0 Bft)
12.03.2014 06:14 3,8 C 2,2 C 96 % 1031,6 hPa 0,0 l/m 0 min 0 min 0,0 UV-I 0 W/m 0,0 km/h (0 Bft)
12.03.2014 06:16 3,8 C 2,2 C 96 % 1031,5 hPa 0,0 l/m 0 min 0 min 0,0 UV-I 0 W/m 0,0 km/h (0 Bft)
12.03.2014 06:18 3,8 C 2,2 C 96 % 1031,5 hPa 0,0 l/m 0 min 0 min 0,0 UV-I 0 W/m 0,0 km/h (0 Bft)
12.03.2014 06:20 3,7 C 2,2 C 96 % 1031,5 hPa 0,0 l/m 0 min 0 min 0,0 UV-I 0 W/m 0,0 km/h (0 Bft)
12.03.2014 06:22 3,7 C 1,7 C 96 % 1031,6 hPa 0,0 l/m 0 min 0 min 0,0 UV-I 0 W/m 0,0 km/h (0 Bft)
12.03.2014 06:24 3,7 C 1,7 C 96 % 1031,5 hPa 0,0 l/m 0 min 0 min 0,0 UV-I 0 W/m 0,0 km/h (0 Bft)
12.03.2014 06:26 3,6 C 1,7 C 95 % 1031,5 hPa 0,0 l/m 0 min 0 min 0,0 UV-I 0 W/m 0,0 km/h (0 Bft)
12.03.2014 06:28 3,6 C 1,7 C 96 % 1031,6 hPa 0,0 l/m 0 min 0 min 0,0 UV-I 0 W/m 0,0 km/h (0 Bft)
12.03.2014 06:30 3,6 C 1,7 C 96 % 1031,6 hPa 0,0 l/m 0 min 0 min 0,0 UV-I 0 W/m 0,0 km/h (0 Bft)
12.03.2014 06:32 3,6 C 1,7 C 96 % 1031,6 hPa 0,0 l/m 0 min 0 min 0,0 UV-I 0 W/m 0,0 km/h (0 Bft)
12.03.2014 06:34 3,6 C 1,7 C 96 % 1031,6 hPa 0,0 l/m 0 min 0 min 0,0 UV-I 0 W/m 0,0 km/h (0 Bft)
12.03.2014 06:36 3,6 C 1,7 C 96 % 1031,6 hPa 0,0 l/m 0 min 0 min 0,0 UV-I 0 W/m 0,0 km/h (0 Bft)
12.03.2014 06:38 3,6 C 1,7 C 96 % 1031,6 hPa 0,0 l/m 0 min 0 min 0,0 UV-I 0 W/m 0,0 km/h (0 Bft)
12.03.2014 06:40 3,6 C 1,7 C 96 % 1031,7 hPa 0,0 l/m 0 min 0 min 0,0 UV-I 0 W/m 0,0 km/h (0 Bft)
12.03.2014 06:42 3,5 C 1,7 C 96 % 1031,7 hPa 0,0 l/m 0 min 0 min 0,0 UV-I 0 W/m 0,0 km/h (0 Bft)
12.03.2014 06:44 3,4 C 1,7 C 96 % 1031,7 hPa 0,0 l/m 0 min 0 min 0,0 UV-I 0 W/m 0,0 km/h (0 Bft)
12.03.2014 06:46 3,4 C 1,7 C 95 % 1031,7 hPa 0,0 l/m 0 min 0 min 0,0 UV-I 0 W/m 0,0 km/h (0 Bft)
12.03.2014 06:48 3,4 C 1,7 C 95 % 1031,7 hPa 0,0 l/m 0 min 0 min 0,0 UV-I 0 W/m 0,0 km/h (0 Bft)
12.03.2014 06:50 3,4 C 1,7 C 95 % 1031,8 hPa 0,0 l/m 0 min 0 min 0,0 UV-I 0 W/m 0,0 km/h (0 Bft)
12.03.2014 06:52 3,4 C 1,7 C 95 % 1031,8 hPa 0,0 l/m 0 min 0 min 0,0 UV-I 5 W/m 0,0 km/h (0 Bft)
12.03.2014 06:54 3,4 C 1,7 C 96 % 1031,8 hPa 0,0 l/m 0 min 0 min 0,0 UV-I 5 W/m 0,0 km/h (0 Bft)
12.03.2014 06:56 3,4 C 1,7 C 96 % 1031,8 hPa 0,0 l/m 0 min 0 min 0,0 UV-I 5 W/m 0,0 km/h (0 Bft)
12.03.2014 06:58 3,4 C 1,7 C 96 % 1031,8 hPa 0,0 l/m 0 min 0 min 0,0 UV-I 5 W/m 0,0 km/h (0 Bft)
12.03.2014 07:00 3,4 C 1,7 C 96 % 1031,9 hPa 0,0 l/m 0 min 0 min 0,0 UV-I 7 W/m 0,0 km/h (0 Bft)
12.03.2014 07:02 3,4 C 1,7 C 96 % 1031,8 hPa 0,0 l/m 0 min 0 min 0,0 UV-I 7 W/m 0,0 km/h (0 Bft)
12.03.2014 07:04 3,4 C 1,7 C 96 % 1031,8 hPa 0,0 l/m 0 min 0 min 0,0 UV-I 9 W/m 0,0 km/h (0 Bft)
12.03.2014 07:06 3,4 C 1,7 C 96 % 1031,8 hPa 0,0 l/m 0 min 0 min 0,0 UV-I 11 W/m 0,0 km/h (0 Bft)
12.03.2014 07:08 3,4 C 1,7 C 96 % 1031,8 hPa 0,0 l/m 0 min 0 min 0,0 UV-I 11 W/m 0,0 km/h (0 Bft)
12.03.2014 07:10 3,4 C 1,7 C 96 % 1031,9 hPa 0,0 l/m 0 min 0 min 0,0 UV-I 12 W/m 0,0 km/h (0 Bft)
12.03.2014 07:12 3,4 C 1,7 C 96 % 1031,9 hPa 0,0 l/m 0 min 0 min 0,0 UV-I 14 W/m 0,0 km/h (0 Bft)
12.03.2014 07:14 3,3 C 1,7 C 96 % 1031,9 hPa 0,0 l/m 0 min 0 min 0,0 UV-I 14 W/m 0,0 km/h (0 Bft)
12.03.2014 07:16 3,3 C 1,7 C 96 % 1031,8 hPa 0,0 l/m 0 min 0 min 0,0 UV-I 16 W/m 0,0 km/h (0 Bft)
12.03.2014 07:18 3,3 C 1,7 C 96 % 1031,8 hPa 0,0 l/m 0 min 0 min 0,0 UV-I 18 W/m 0,0 km/h (0 Bft)
12.03.2014 07:20 3,3 C 1,7 C 96 % 1031,8 hPa 0,0 l/m 0 min 0 min 0,0 UV-I 19 W/m 0,0 km/h (0 Bft)
12.03.2014 07:22 3,4 C 1,7 C 96 % 1031,9 hPa 0,0 l/m 0 min 0 min 0,0 UV-I 21 W/m 0,0 km/h (0 Bft)
12.03.2014 07:24 3,4 C 1,7 C 96 % 1031,9 hPa 0,0 l/m 0 min 0 min 0,0 UV-I 23 W/m 0,0 km/h (0 Bft)
12.03.2014 07:26 3,4 C 1,7 C 96 % 1031,9 hPa 0,0 l/m 0 min 0 min 0,0 UV-I 25 W/m 0,0 km/h (0 Bft)
12.03.2014 07:28 3,4 C 1,7 C 96 % 1032,0 hPa 0,0 l/m 0 min 0 min 0,0 UV-I 26 W/m 0,0 km/h (0 Bft)
12.03.2014 07:30 3,3 C 1,7 C 96 % 1032,0 hPa 0,0 l/m 0 min 0 min 0,0 UV-I 28 W/m 0,0 km/h (0 Bft)
12.03.2014 07:32 3,3 C 1,7 C 96 % 1032,0 hPa 0,0 l/m 0 min 0 min 0,0 UV-I 28 W/m 0,0 km/h (0 Bft)
12.03.2014 07:34 3,3 C 1,7 C 96 % 1032,0 hPa 0,0 l/m 0 min 0 min 0,0 UV-I 32 W/m 0,0 km/h (0 Bft)
12.03.2014 07:36 3,3 C 1,7 C 96 % 1032,0 hPa 0,0 l/m 0 min 0 min 0,0 UV-I 33 W/m 0,0 km/h (0 Bft)
12.03.2014 07:38 3,4 C 1,7 C 96 % 1032,1 hPa 0,0 l/m 0 min 0 min 0,0 UV-I 33 W/m 0,0 km/h (0 Bft)
12.03.2014 07:40 3,5 C 1,7 C 96 % 1032,1 hPa 0,0 l/m 0 min 0 min 0,0 UV-I 37 W/m 0,0 km/h (0 Bft)
12.03.2014 07:42 3,6 C 2,2 C 96 % 1032,1 hPa 0,0 l/m 0 min 0 min 0,0 UV-I 40 W/m 0,0 km/h (0 Bft)
12.03.2014 07:44 3,7 C 2,2 C 96 % 1032,1 hPa 0,0 l/m 0 min 0 min 0,0 UV-I 49 W/m 0,0 km/h (0 Bft)
12.03.2014 07:46 3,7 C 2,2 C 96 % 1032,1 hPa 0,0 l/m 0 min 0 min 0,0 UV-I 53 W/m 0,0 km/h (0 Bft)
12.03.2014 07:48 3,8 C 2,2 C 96 % 1032,1 hPa 0,0 l/m 0 min 0 min 0,0 UV-I 54 W/m 0,0 km/h (0 Bft)
12.03.2014 07:50 3,8 C 2,2 C 96 % 1032,1 hPa 0,0 l/m 0 min 0 min 0,0 UV-I 60 W/m 0,0 km/h (0 Bft)
12.03.2014 07:52 3,9 C 2,2 C 96 % 1032,1 hPa 0,0 l/m 0 min 0 min 0,0 UV-I 62 W/m 0,0 km/h (0 Bft)
12.03.2014 07:54 3,9 C 2,2 C 96 % 1032,1 hPa 0,0 l/m 0 min 0 min 0,0 UV-I 65 W/m 0,0 km/h (0 Bft)
12.03.2014 07:56 4,0 C 2,2 C 96 % 1032,2 hPa 0,0 l/m 0 min 0 min 0,0 UV-I 70 W/m 0,0 km/h (0 Bft)
12.03.2014 07:58 4,0 C 2,8 C 96 % 1032,2 hPa 0,0 l/m 0 min 0 min 0,0 UV-I 74 W/m 0,0 km/h (0 Bft)
12.03.2014 08:00 4,0 C 2,8 C 96 % 1032,2 hPa 0,0 l/m 0 min 0 min 0,0 UV-I 77 W/m 0,0 km/h (0 Bft)
12.03.2014 08:02 4,1 C 2,8 C 96 % 1032,1 hPa 0,0 l/m 0 min 0 min 0,0 UV-I 81 W/m 0,0 km/h (0 Bft)
12.03.2014 08:04 4,1 C 2,8 C 96 % 1032,2 hPa 0,0 l/m 0 min 0 min 0,0 UV-I 86 W/m 0,0 km/h (0 Bft)
12.03.2014 08:06 4,1 C 2,8 C 96 % 1032,1 hPa 0,0 l/m 0 min 0 min 0,0 UV-I 88 W/m 0,0 km/h (0 Bft)
12.03.2014 08:10 4,2 C 2,8 C 96 % 1032,1 hPa 0,0 l/m 0 min 0 min 0,0 UV-I 98 W/m 0,0 km/h (0 Bft)
12.03.2014 08:15 4,3 C 2,8 C 96 % 1032,2 hPa 0,0 l/m 0 min 0 min 0,0 UV-I 107 W/m 0,0 km/h (0 Bft)
12.03.2014 08:20 4,6 C 3,3 C 96 % 1032,1 hPa 0,0 l/m 2 min 0 min 0,0 UV-I 118 W/m 0,0 km/h (0 Bft)
12.03.2014 08:25 4,8 C 3,3 C 96 % 1032,1 hPa 0,0 l/m 2 min 0 min 0,0 UV-I 128 W/m 0,0 km/h (0 Bft)
12.03.2014 08:30 4,9 C 3,3 C 96 % 1032,2 hPa 0,0 l/m 2 min 0 min 0,0 UV-I 141 W/m 0,0 km/h (0 Bft)
12.03.2014 08:35 5,2 C 3,9 C 96 % 1032,2 hPa 0,0 l/m 2 min 0 min 0,0 UV-I 153 W/m 0,0 km/h (0 Bft)
12.03.2014 08:40 5,4 C 3,9 C 96 % 1032,3 hPa 0,0 l/m 2 min 0 min 0,0 UV-I 165 W/m 0,0 km/h (0 Bft)
12.03.2014 08:45 5,6 C 4,4 C 96 % 1032,3 hPa 0,0 l/m 2 min 0 min 0,0 UV-I 179 W/m 2,6 km/h (1 Bft)
12.03.2014 08:50 5,9 C 4,4 C 95 % 1032,4 hPa 0,0 l/m 2 min 0 min 0,0 UV-I 192 W/m 0,0 km/h (0 Bft)
12.03.2014 08:55 6,2 C 4,4 C 94 % 1032,3 hPa 0,0 l/m 2 min 0 min 0,0 UV-I 204 W/m 2,6 km/h (1 Bft)
12.03.2014 09:00 6,4 C 5,0 C 93 % 1032,4 hPa 0,0 l/m 2 min 0 min 0,0 UV-I 214 W/m 2,6 km/h (1 Bft)
12.03.2014 09:05 6,7 C 5,0 C 92 % 1032,4 hPa 0,0 l/m 2 min 0 min 0,0 UV-I 227 W/m 0,0 km/h (0 Bft)
12.03.2014 09:10 7,0 C 5,6 C 91 % 1032,4 hPa 0,0 l/m 2 min 0 min 0,0 UV-I 239 W/m 2,6 km/h (1 Bft)
12.03.2014 09:15 7,3 C 5,6 C 90 % 1032,3 hPa 0,0 l/m 2 min 0 min 0,0 UV-I 250 W/m 0,0 km/h (0 Bft)
12.03.2014 09:20 7,6 C 5,6 C 89 % 1032,4 hPa 0,0 l/m 2 min 0 min 0,0 UV-I 264 W/m 0,0 km/h (0 Bft)
12.03.2014 09:25 7,9 C 6,1 C 88 % 1032,4 hPa 0,0 l/m 2 min 0 min 0,0 UV-I 274 W/m 2,6 km/h (1 Bft)
12.03.2014 09:30 8,2 C 6,1 C 87 % 1032,4 hPa 0,0 l/m 2 min 0 min 0,0 UV-I 285 W/m 0,0 km/h (0 Bft)
12.03.2014 09:35 8,6 C 6,7 C 86 % 1032,4 hPa 0,0 l/m 2 min 0 min 0,0 UV-I 295 W/m 0,0 km/h (0 Bft)
12.03.2014 09:40 8,8 C 6,7 C 84 % 1032,4 hPa 0,0 l/m 2 min 0 min 0,0 UV-I 306 W/m 2,6 km/h (1 Bft)
12.03.2014 09:45 9,2 C 7,2 C 83 % 1032,4 hPa 0,0 l/m 2 min 0 min 0,0 UV-I 316 W/m 5,1 km/h (1 Bft)
12.03.2014 09:50 9,5 C 7,2 C 82 % 1032,4 hPa 0,0 l/m 2 min 0 min 0,0 UV-I 329 W/m 7,7 km/h (2 Bft)
12.03.2014 09:55 9,7 C 7,8 C 82 % 1032,4 hPa 0,0 l/m 2 min 0 min 0,0 UV-I 339 W/m 7,7 km/h (2 Bft)
12.03.2014 10:00 9,9 C 7,8 C 80 % 1032,3 hPa 0,0 l/m 2 min 0 min 0,0 UV-I 350 W/m 10,3 km/h (2 Bft)
12.03.2014 10:05 10,1 C 8,3 C 79 % 1032,3 hPa 0,0 l/m 2 min 0 min 0,0 UV-I 362 W/m 10,3 km/h (2 Bft)
12.03.2014 10:10 10,3 C 8,3 C 79 % 1032,4 hPa 0,0 l/m 2 min 0 min 0,5 UV-I 369 W/m 7,7 km/h (2 Bft)
12.03.2014 10:15 10,6 C 8,9 C 77 % 1032,4 hPa 0,0 l/m 2 min 0 min 0,5 UV-I 380 W/m 12,9 km/h (3 Bft)
12.03.2014 10:20 10,7 C 8,9 C 76 % 1032,4 hPa 0,0 l/m 2 min 0 min 0,6 UV-I 390 W/m 12,9 km/h (3 Bft)
12.03.2014 10:25 11,1 C 9,4 C 76 % 1032,4 hPa 0,0 l/m 2 min 0 min 0,6 UV-I 399 W/m 7,7 km/h (2 Bft)
12.03.2014 10:30 11,3 C 9,4 C 74 % 1032,4 hPa 0,0 l/m 2 min 0 min 0,6 UV-I 406 W/m 10,3 km/h (2 Bft)
12.03.2014 10:35 11,4 C 9,4 C 74 % 1032,4 hPa 0,0 l/m 2 min 0 min 0,7 UV-I 413 W/m 5,1 km/h (1 Bft)
12.03.2014 10:40 11,7 C 10,0 C 74 % 1032,4 hPa 0,0 l/m 2 min 0 min 0,7 UV-I 422 W/m 7,7 km/h (2 Bft)
12.03.2014 10:44 12,0 C 10,0 C 73 % 1032,5 hPa 0,0 l/m 2 min 0 min 0,7 UV-I 429 W/m 0,0 km/h (0 Bft)
12.03.2014 10:46 12,1 C 10,0 C 73 % 1032,5 hPa 0,0 l/m 2 min 0 min 0,8 UV-I 432 W/m 2,6 km/h (1 Bft)
12.03.2014 10:48 12,2 C 10,6 C 73 % 1032,5 hPa 0,0 l/m 2 min 0 min 0,8 UV-I 434 W/m 2,6 km/h (1 Bft)
12.03.2014 10:50 12,2 C 10,6 C 72 % 1032,5 hPa 0,0 l/m 2 min 0 min 0,8 UV-I 436 W/m 10,3 km/h (2 Bft)
12.03.2014 10:52 12,2 C 10,6 C 72 % 1032,4 hPa 0,0 l/m 2 min 0 min 0,8 UV-I 443 W/m 12,9 km/h (3 Bft)
12.03.2014 10:54 12,3 C 10,6 C 72 % 1032,5 hPa 0,0 l/m 2 min 0 min 0,8 UV-I 445 W/m 0,0 km/h (0 Bft)
12.03.2014 10:56 12,4 C 10,6 C 72 % 1032,4 hPa 0,0 l/m 2 min 0 min 0,9 UV-I 445 W/m 2,6 km/h (1 Bft)
12.03.2014 10:58 12,4 C 10,6 C 72 % 1032,4 hPa 0,0 l/m 2 min 0 min 0,9 UV-I 446 W/m 7,7 km/h (2 Bft)
12.03.2014 11:00 12,5 C 10,6 C 71 % 1032,5 hPa 0,0 l/m 2 min 0 min 0,9 UV-I 448 W/m 7,7 km/h (2 Bft)
12.03.2014 11:02 12,6 C 10,6 C 72 % 1032,4 hPa 0,0 l/m 2 min 0 min 0,9 UV-I 455 W/m 0,0 km/h (0 Bft)
12.03.2014 11:04 12,6 C 10,6 C 71 % 1032,4 hPa 0,0 l/m 2 min 0 min 0,9 UV-I 461 W/m 0,0 km/h (0 Bft)
12.03.2014 11:06 12,5 C 11,1 C 71 % 1032,4 hPa 0,0 l/m 2 min 0 min 0,9 UV-I 462 W/m 12,9 km/h (3 Bft)
12.03.2014 11:08 12,5 C 11,1 C 71 % 1032,4 hPa 0,0 l/m 2 min 0 min 0,9 UV-I 461 W/m 0,0 km/h (0 Bft)
12.03.2014 11:10 12,6 C 11,1 C 71 % 1032,4 hPa 0,0 l/m 2 min 0 min 1,0 UV-I 462 W/m 10,3 km/h (2 Bft)
12.03.2014 11:12 12,8 C 11,1 C 70 % 1032,4 hPa 0,0 l/m 2 min 0 min 1,0 UV-I 464 W/m 10,3 km/h (2 Bft)
12.03.2014 11:14 12,9 C 11,1 C 71 % 1032,4 hPa 0,0 l/m 2 min 0 min 1,0 UV-I 466 W/m 0,0 km/h (0 Bft)
12.03.2014 11:16 13,1 C 11,1 C 70 % 1032,4 hPa 0,0 l/m 2 min 0 min 1,0 UV-I 473 W/m 10,3 km/h (2 Bft)
12.03.2014 11:18 13,1 C 11,1 C 69 % 1032,4 hPa 0,0 l/m 2 min 0 min 1,0 UV-I 473 W/m 7,7 km/h (2 Bft)
12.03.2014 11:20 13,2 C 11,7 C 68 % 1032,3 hPa 0,0 l/m 2 min 0 min 1,0 UV-I 476 W/m 7,7 km/h (2 Bft)
12.03.2014 11:22 13,1 C 11,7 C 68 % 1032,3 hPa 0,0 l/m 2 min 0 min 1,0 UV-I 480 W/m 7,7 km/h (2 Bft)
12.03.2014 11:24 13,2 C 11,7 C 69 % 1032,3 hPa 0,0 l/m 2 min 0 min 1,1 UV-I 482 W/m 5,1 km/h (1 Bft)
12.03.2014 11:26 13,3 C 11,7 C 69 % 1032,3 hPa 0,0 l/m 2 min 0 min 1,1 UV-I 485 W/m 2,6 km/h (1 Bft)
12.03.2014 11:28 13,5 C 11,7 C 68 % 1032,3 hPa 0,0 l/m 2 min 0 min 1,1 UV-I 483 W/m 5,1 km/h (1 Bft)
12.03.2014 11:30 13,6 C 11,7 C 68 % 1032,3 hPa 0,0 l/m 2 min 0 min 1,1 UV-I 485 W/m 5,1 km/h (1 Bft)
12.03.2014 11:32 13,6 C 11,7 C 67 % 1032,2 hPa 0,0 l/m 2 min 0 min 1,1 UV-I 489 W/m 10,3 km/h (2 Bft)
12.03.2014 11:34 13,7 C 11,7 C 67 % 1032,2 hPa 0,0 l/m 2 min 0 min 1,1 UV-I 492 W/m 12,9 km/h (3 Bft)
12.03.2014 11:36 13,7 C 11,7 C 66 % 1032,1 hPa 0,0 l/m 2 min 0 min 1,1 UV-I 497 W/m 10,3 km/h (2 Bft)
12.03.2014 11:38 13,7 C 11,7 C 66 % 1032,1 hPa 0,0 l/m 2 min 0 min 1,2 UV-I 497 W/m 15,4 km/h (3 Bft)
12.03.2014 11:40 13,7 C 11,7 C 66 % 1032,1 hPa 0,0 l/m 2 min 0 min 1,2 UV-I 501 W/m 12,9 km/h (3 Bft)
12.03.2014 11:42 13,8 C 12,2 C 68 % 1032,1 hPa 0,0 l/m 2 min 0 min 1,2 UV-I 501 W/m 0,0 km/h (0 Bft)
12.03.2014 11:44 13,8 C 12,2 C 66 % 1032,1 hPa 0,0 l/m 2 min 0 min 1,2 UV-I 501 W/m 0,0 km/h (0 Bft)
12.03.2014 11:46 13,9 C 12,2 C 66 % 1032,0 hPa 0,0 l/m 2 min 0 min 1,2 UV-I 510 W/m 7,7 km/h (2 Bft)
12.03.2014 11:48 13,9 C 12,2 C 65 % 1032,1 hPa 0,0 l/m 2 min 0 min 1,1 UV-I 508 W/m 18,0 km/h (3 Bft)
12.03.2014 11:50 14,0 C 12,2 C 67 % 1032,1 hPa 0,0 l/m 2 min 0 min 1,1 UV-I 510 W/m 0,0 km/h (0 Bft)
12.03.2014 11:52 14,1 C 12,2 C 65 % 1032,0 hPa 0,0 l/m 2 min 0 min 1,0 UV-I 513 W/m 0,0 km/h (0 Bft)
12.03.2014 11:54 14,2 C 12,2 C 66 % 1032,0 hPa 0,0 l/m 2 min 0 min 0,9 UV-I 513 W/m 2,6 km/h (1 Bft)
12.03.2014 11:56 14,3 C 12,8 C 65 % 1032,0 hPa 0,0 l/m 2 min 0 min 0,8 UV-I 512 W/m 10,3 km/h (2 Bft)
12.03.2014 11:58 14,4 C 12,8 C 65 % 1032,0 hPa 0,0 l/m 2 min 0 min 0,8 UV-I 515 W/m 7,7 km/h (2 Bft)
12.03.2014 12:00 14,6 C 12,8 C 65 % 1032,0 hPa 0,0 l/m 2 min 0 min 0,7 UV-I 519 W/m 2,6 km/h (1 Bft)
12.03.2014 12:02 14,6 C 12,8 C 63 % 1032,0 hPa 0,0 l/m 2 min 0 min 0,7 UV-I 519 W/m 2,6 km/h (1 Bft)
12.03.2014 12:04 14,6 C 12,8 C 62 % 1032,0 hPa 0,0 l/m 2 min 0 min 0,7 UV-I 520 W/m 10,3 km/h (2 Bft)
12.03.2014 12:06 14,6 C 12,8 C 62 % 1031,9 hPa 0,0 l/m 2 min 0 min 0,7 UV-I 519 W/m 10,3 km/h (2 Bft)
12.03.2014 12:08 14,6 C 12,8 C 64 % 1031,8 hPa 0,0 l/m 2 min 0 min 0,7 UV-I 527 W/m 2,6 km/h (1 Bft)
12.03.2014 12:10 14,7 C 12,8 C 63 % 1031,8 hPa 0,0 l/m 2 min 0 min 0,7 UV-I 527 W/m 7,7 km/h (2 Bft)
12.03.2014 12:12 14,7 C 12,8 C 62 % 1031,9 hPa 0,0 l/m 2 min 0 min 0,7 UV-I 526 W/m 15,4 km/h (3 Bft)
12.03.2014 12:14 14,8 C 12,8 C 63 % 1031,8 hPa 0,0 l/m 2 min 0 min 0,7 UV-I 529 W/m 7,7 km/h (2 Bft)
12.03.2014 12:16 14,9 C 12,8 C 62 % 1031,8 hPa 0,0 l/m 2 min 0 min 0,8 UV-I 527 W/m 5,1 km/h (1 Bft)
12.03.2014 12:18 14,9 C 12,8 C 60 % 1031,8 hPa 0,0 l/m 2 min 0 min 0,8 UV-I 529 W/m 5,1 km/h (1 Bft)
12.03.2014 12:20 14,9 C 12,8 C 62 % 1031,8 hPa 0,0 l/m 2 min 0 min 0,8 UV-I 529 W/m 0,0 km/h (0 Bft)
12.03.2014 12:22 15,2 C 13,3 C 62 % 1031,7 hPa 0,0 l/m 2 min 0 min 0,8 UV-I 533 W/m 2,6 km/h (1 Bft)
12.03.2014 12:24 15,3 C 13,3 C 61 % 1031,6 hPa 0,0 l/m 2 min 0 min 0,8 UV-I 529 W/m 7,7 km/h (2 Bft)
12.03.2014 12:26 15,4 C 13,3 C 60 % 1031,6 hPa 0,0 l/m 2 min 0 min 0,8 UV-I 534 W/m 2,6 km/h (1 Bft)
12.03.2014 12:28 15,4 C 13,3 C 59 % 1031,6 hPa 0,0 l/m 2 min 0 min 0,8 UV-I 529 W/m 5,1 km/h (1 Bft)
12.03.2014 12:30 15,5 C 13,3 C 59 % 1031,5 hPa 0,0 l/m 2 min 0 min 0,8 UV-I 533 W/m 2,6 km/h (1 Bft)
12.03.2014 12:32 15,5 C 13,9 C 58 % 1031,5 hPa 0,0 l/m 2 min 0 min 0,8 UV-I 531 W/m 2,6 km/h (1 Bft)
12.03.2014 12:34 15,5 C 13,3 C 58 % 1031,5 hPa 0,0 l/m 2 min 0 min 0,8 UV-I 531 W/m 7,7 km/h (2 Bft)
12.03.2014 12:36 15,7 C 13,3 C 59 % 1031,5 hPa 0,0 l/m 2 min 0 min 0,8 UV-I 529 W/m 2,6 km/h (1 Bft)
12.03.2014 12:38 15,7 C 13,9 C 57 % 1031,5 hPa 0,0 l/m 2 min 0 min 0,8 UV-I 534 W/m 7,7 km/h (2 Bft)
12.03.2014 12:40 15,8 C 13,9 C 58 % 1031,5 hPa 0,0 l/m 2 min 0 min 0,9 UV-I 533 W/m 12,9 km/h (3 Bft)
12.03.2014 12:42 15,8 C 13,3 C 57 % 1031,5 hPa 0,0 l/m 2 min 0 min 1,0 UV-I 531 W/m 5,1 km/h (1 Bft)
12.03.2014 12:44 15,7 C 13,9 C 58 % 1031,5 hPa 0,0 l/m 2 min 0 min 1,1 UV-I 529 W/m 2,6 km/h (1 Bft)
12.03.2014 12:46 15,8 C 13,9 C 57 % 1031,5 hPa 0,0 l/m 2 min 0 min 1,2 UV-I 531 W/m 0,0 km/h (0 Bft)
12.03.2014 12:48 16,0 C 13,9 C 56 % 1031,5 hPa 0,0 l/m 2 min 0 min 1,3 UV-I 533 W/m 2,6 km/h (1 Bft)
12.03.2014 12:50 16,1 C 13,9 C 56 % 1031,4 hPa 0,0 l/m 2 min 0 min 1,4 UV-I 534 W/m 2,6 km/h (1 Bft)
12.03.2014 12:52 16,2 C 13,9 C 56 % 1031,4 hPa 0,0 l/m 2 min 0 min 1,4 UV-I 536 W/m 2,6 km/h (1 Bft)
12.03.2014 12:54 16,3 C 13,9 C 56 % 1031,4 hPa 0,0 l/m 2 min 0 min 1,4 UV-I 540 W/m 0,0 km/h (0 Bft)
12.03.2014 12:56 16,5 C 14,4 C 56 % 1031,4 hPa 0,0 l/m 2 min 0 min 1,4 UV-I 531 W/m 5,1 km/h (1 Bft)
12.03.2014 12:58 16,6 C 14,4 C 54 % 1031,3 hPa 0,0 l/m 2 min 0 min 1,4 UV-I 534 W/m 18,0 km/h (3 Bft)
12.03.2014 13:00 16,6 C 14,4 C 54 % 1031,3 hPa 0,0 l/m 2 min 0 min 1,4 UV-I 540 W/m 2,6 km/h (1 Bft)
12.03.2014 13:02 16,6 C 14,4 C 54 % 1031,3 hPa 0,0 l/m 2 min 0 min 1,5 UV-I 545 W/m 12,9 km/h (3 Bft)
12.03.2014 13:04 16,6 C 14,4 C 54 % 1031,2 hPa 0,0 l/m 2 min 0 min 1,4 UV-I 534 W/m 7,7 km/h (2 Bft)
12.03.2014 13:06 16,5 C 14,4 C 54 % 1031,1 hPa 0,0 l/m 2 min 0 min 1,4 UV-I 538 W/m 2,6 km/h (1 Bft)
12.03.2014 13:08 16,4 C 14,4 C 53 % 1031,1 hPa 0,0 l/m 2 min 0 min 1,4 UV-I 534 W/m 2,6 km/h (1 Bft)
12.03.2014 13:10 16,5 C 14,4 C 57 % 1031,1 hPa 0,0 l/m 2 min 0 min 1,4 UV-I 533 W/m 2,6 km/h (1 Bft)
12.03.2014 13:12 16,7 C 14,4 C 55 % 1031,1 hPa 0,0 l/m 2 min 0 min 1,4 UV-I 531 W/m 0,0 km/h (0 Bft)
12.03.2014 13:14 16,8 C 14,4 C 53 % 1031,1 hPa 0,0 l/m 2 min 0 min 1,4 UV-I 531 W/m 2,6 km/h (1 Bft)
12.03.2014 13:16 16,7 C 14,4 C 53 % 1031,1 hPa 0,0 l/m 2 min 0 min 1,4 UV-I 529 W/m 0,0 km/h (0 Bft)
12.03.2014 13:18 16,7 C 14,4 C 52 % 1031,0 hPa 0,0 l/m 2 min 0 min 1,4 UV-I 527 W/m 0,0 km/h (0 Bft)
12.03.2014 13:20 16,7 C 14,4 C 52 % 1031,0 hPa 0,0 l/m 2 min 0 min 1,4 UV-I 527 W/m 10,3 km/h (2 Bft)
12.03.2014 13:22 16,7 C 14,4 C 53 % 1031,0 hPa 0,0 l/m 2 min 0 min 1,4 UV-I 533 W/m 0,0 km/h (0 Bft)
12.03.2014 13:24 16,8 C 14,4 C 51 % 1030,9 hPa 0,0 l/m 2 min 0 min 1,4 UV-I 536 W/m 12,9 km/h (3 Bft)
12.03.2014 13:26 16,9 C 14,4 C 50 % 1030,9 hPa 0,0 l/m 2 min 0 min 1,4 UV-I 536 W/m 12,9 km/h (3 Bft)
12.03.2014 13:28 17,0 C 14,4 C 51 % 1030,8 hPa 0,0 l/m 2 min 0 min 1,4 UV-I 536 W/m 2,6 km/h (1 Bft)
12.03.2014 13:30 17,2 C 15,0 C 52 % 1030,8 hPa 0,0 l/m 2 min 0 min 1,4 UV-I 527 W/m 2,6 km/h (1 Bft)
12.03.2014 13:32 17,3 C 15,0 C 52 % 1030,8 hPa 0,0 l/m 2 min 0 min 1,4 UV-I 527 W/m 0,0 km/h (0 Bft)
12.03.2014 13:34 17,2 C 15,0 C 50 % 1030,8 hPa 0,0 l/m 2 min 0 min 1,4 UV-I 529 W/m 0,0 km/h (0 Bft)
12.03.2014 13:36 17,1 C 15,0 C 51 % 1030,7 hPa 0,0 l/m 2 min 0 min 1,4 UV-I 529 W/m 2,6 km/h (1 Bft)
12.03.2014 13:38 17,3 C 15,0 C 52 % 1030,7 hPa 0,0 l/m 2 min 0 min 1,4 UV-I 531 W/m 0,0 km/h (0 Bft)
12.03.2014 13:40 17,5 C 15,0 C 49 % 1030,6 hPa 0,0 l/m 2 min 0 min 1,4 UV-I 529 W/m 5,1 km/h (1 Bft)
12.03.2014 13:42 17,7 C 15,0 C 49 % 1030,7 hPa 0,0 l/m 2 min 0 min 1,4 UV-I 522 W/m 2,6 km/h (1 Bft)
12.03.2014 13:44 17,7 C 15,0 C 48 % 1030,6 hPa 0,0 l/m 2 min 0 min 1,4 UV-I 524 W/m 7,7 km/h (2 Bft)
12.03.2014 13:46 17,6 C 15,0 C 47 % 1030,5 hPa 0,0 l/m 2 min 0 min 1,4 UV-I 527 W/m 12,9 km/h (3 Bft)
12.03.2014 13:48 17,5 C 15,0 C 48 % 1030,5 hPa 0,0 l/m 2 min 0 min 1,4 UV-I 527 W/m 7,7 km/h (2 Bft)
12.03.2014 13:50 17,5 C 15,0 C 47 % 1030,5 hPa 0,0 l/m 2 min 0 min 1,3 UV-I 522 W/m 10,3 km/h (2 Bft)
12.03.2014 13:52 17,4 C 15,0 C 48 % 1030,5 hPa 0,0 l/m 2 min 0 min 1,3 UV-I 520 W/m 10,3 km/h (2 Bft)
12.03.2014 13:54 17,5 C 15,0 C 49 % 1030,5 hPa 0,0 l/m 2 min 0 min 1,3 UV-I 519 W/m 2,6 km/h (1 Bft)
12.03.2014 13:56 17,6 C 15,0 C 49 % 1030,5 hPa 0,0 l/m 2 min 0 min 1,3 UV-I 519 W/m 2,6 km/h (1 Bft)
12.03.2014 13:58 17,7 C 15,0 C 49 % 1030,5 hPa 0,0 l/m 2 min 0 min 1,3 UV-I 520 W/m 2,6 km/h (1 Bft)
12.03.2014 14:00 17,8 C 15,6 C 49 % 1030,5 hPa 0,0 l/m 2 min 0 min 1,3 UV-I 517 W/m 7,7 km/h (2 Bft)
12.03.2014 14:02 18,0 C 15,6 C 50 % 1030,5 hPa 0,0 l/m 2 min 0 min 1,3 UV-I 510 W/m 10,3 km/h (2 Bft)
12.03.2014 14:04 17,9 C 15,6 C 48 % 1030,4 hPa 0,0 l/m 2 min 0 min 1,3 UV-I 510 W/m 7,7 km/h (2 Bft)
12.03.2014 14:06 17,9 C 15,6 C 49 % 1030,3 hPa 0,0 l/m 2 min 0 min 1,3 UV-I 504 W/m 7,7 km/h (2 Bft)
12.03.2014 14:08 17,9 C 15,0 C 48 % 1030,3 hPa 0,0 l/m 2 min 0 min 1,2 UV-I 501 W/m 2,6 km/h (1 Bft)
12.03.2014 14:10 18,1 C 15,6 C 46 % 1030,3 hPa 0,0 l/m 2 min 0 min 1,2 UV-I 501 W/m 12,9 km/h (3 Bft)
12.03.2014 14:12 18,1 C 15,6 C 46 % 1030,3 hPa 0,0 l/m 2 min 0 min 1,2 UV-I 504 W/m 7,7 km/h (2 Bft)
12.03.2014 14:14 18,0 C 15,6 C 47 % 1030,3 hPa 0,0 l/m 2 min 0 min 1,2 UV-I 494 W/m 2,6 km/h (1 Bft)
12.03.2014 14:16 17,7 C 15,6 C 48 % 1030,3 hPa 0,0 l/m 2 min 0 min 1,2 UV-I 494 W/m 2,6 km/h (1 Bft)
12.03.2014 14:18 17,8 C 15,6 C 47 % 1030,2 hPa 0,0 l/m 2 min 0 min 1,2 UV-I 490 W/m 2,6 km/h (1 Bft)
12.03.2014 14:20 17,8 C 15,6 C 46 % 1030,3 hPa 0,0 l/m 2 min 0 min 1,1 UV-I 485 W/m 10,3 km/h (2 Bft)
12.03.2014 14:22 17,9 C 15,6 C 47 % 1030,2 hPa 0,0 l/m 2 min 0 min 1,1 UV-I 483 W/m 7,7 km/h (2 Bft)
12.03.2014 14:24 17,9 C 15,6 C 46 % 1030,1 hPa 0,0 l/m 2 min 0 min 1,1 UV-I 478 W/m 10,3 km/h (2 Bft)
12.03.2014 14:26 18,1 C 15,6 C 47 % 1030,2 hPa 0,0 l/m 2 min 0 min 1,1 UV-I 475 W/m 2,6 km/h (1 Bft)
12.03.2014 14:28 18,1 C 15,6 C 46 % 1030,1 hPa 0,0 l/m 2 min 0 min 1,1 UV-I 478 W/m 2,6 km/h (1 Bft)
12.03.2014 14:30 18,1 C 15,6 C 47 % 1030,1 hPa 0,0 l/m 2 min 0 min 1,1 UV-I 478 W/m 7,7 km/h (2 Bft)
12.03.2014 14:32 18,2 C 15,6 C 45 % 1030,1 hPa 0,0 l/m 2 min 0 min 1,0 UV-I 469 W/m 10,3 km/h (2 Bft)
12.03.2014 14:34 18,2 C 15,6 C 45 % 1030,1 hPa 0,0 l/m 2 min 0 min 1,0 UV-I 468 W/m 7,7 km/h (2 Bft)
12.03.2014 14:36 18,3 C 16,1 C 46 % 1030,1 hPa 0,0 l/m 2 min 0 min 1,0 UV-I 462 W/m 2,6 km/h (1 Bft)
12.03.2014 14:38 18,3 C 16,1 C 45 % 1030,1 hPa 0,0 l/m 2 min 0 min 1,0 UV-I 466 W/m 12,9 km/h (3 Bft)
12.03.2014 14:40 18,3 C 16,1 C 46 % 1030,0 hPa 0,0 l/m 2 min 0 min 1,0 UV-I 464 W/m 2,6 km/h (1 Bft)
12.03.2014 14:42 18,4 C 15,6 C 45 % 1030,0 hPa 0,0 l/m 2 min 0 min 1,0 UV-I 457 W/m 0,0 km/h (0 Bft)
12.03.2014 14:44 18,3 C 15,6 C 46 % 1030,0 hPa 0,0 l/m 2 min 0 min 0,9 UV-I 455 W/m 2,6 km/h (1 Bft)
12.03.2014 14:46 18,4 C 15,6 C 45 % 1029,9 hPa 0,0 l/m 2 min 0 min 0,9 UV-I 450 W/m 5,1 km/h (1 Bft)
12.03.2014 14:48 18,5 C 16,1 C 46 % 1029,9 hPa 0,0 l/m 2 min 0 min 0,9 UV-I 450 W/m 2,6 km/h (1 Bft)
12.03.2014 14:50 18,6 C 16,1 C 47 % 1029,9 hPa 0,0 l/m 2 min 0 min 0,9 UV-I 448 W/m 2,6 km/h (1 Bft)
12.03.2014 14:52 18,6 C 16,1 C 45 % 1029,9 hPa 0,0 l/m 2 min 0 min 0,9 UV-I 446 W/m 0,0 km/h (0 Bft)
12.03.2014 14:54 18,6 C 16,1 C 47 % 1029,9 hPa 0,0 l/m 2 min 0 min 0,9 UV-I 446 W/m 0,0 km/h (0 Bft)
12.03.2014 14:56 18,6 C 16,1 C 46 % 1029,9 hPa 0,0 l/m 2 min 0 min 0,9 UV-I 443 W/m 7,7 km/h (2 Bft)
12.03.2014 14:58 18,6 C 16,1 C 44 % 1029,9 hPa 0,0 l/m 2 min 0 min 0,8 UV-I 434 W/m 10,3 km/h (2 Bft)
12.03.2014 15:00 18,6 C 16,1 C 46 % 1029,8 hPa 0,0 l/m 2 min 0 min 0,8 UV-I 429 W/m 2,6 km/h (1 Bft)
12.03.2014 15:02 18,7 C 16,1 C 47 % 1029,8 hPa 0,0 l/m 2 min 0 min 0,8 UV-I 425 W/m 5,1 km/h (1 Bft)
12.03.2014 15:04 18,7 C 16,1 C 45 % 1029,8 hPa 0,0 l/m 2 min 0 min 0,8 UV-I 424 W/m 2,6 km/h (1 Bft)
12.03.2014 15:06 18,6 C 16,1 C 44 % 1029,8 hPa 0,0 l/m 2 min 0 min 0,8 UV-I 424 W/m 7,7 km/h (2 Bft)
12.03.2014 15:08 18,6 C 16,1 C 44 % 1029,8 hPa 0,0 l/m 2 min 0 min 0,7 UV-I 420 W/m 10,3 km/h (2 Bft)
12.03.2014 15:10 18,7 C 16,1 C 46 % 1029,7 hPa 0,0 l/m 2 min 0 min 0,7 UV-I 410 W/m 2,6 km/h (1 Bft)
12.03.2014 15:12 18,8 C 16,1 C 45 % 1029,7 hPa 0,0 l/m 2 min 0 min 0,7 UV-I 408 W/m 0,0 km/h (0 Bft)
12.03.2014 15:14 18,9 C 16,1 C 45 % 1029,7 hPa 0,0 l/m 2 min 0 min 0,7 UV-I 410 W/m 7,7 km/h (2 Bft)
12.03.2014 15:16 18,8 C 16,1 C 44 % 1029,7 hPa 0,0 l/m 2 min 0 min 0,7 UV-I 406 W/m 2,6 km/h (1 Bft)
12.03.2014 15:18 18,7 C 16,1 C 44 % 1029,7 hPa 0,0 l/m 2 min 0 min 0,7 UV-I 404 W/m 7,7 km/h (2 Bft)
12.03.2014 15:20 18,4 C 16,1 C 43 % 1029,7 hPa 0,0 l/m 2 min 0 min 0,6 UV-I 401 W/m 5,1 km/h (1 Bft)
12.03.2014 15:22 18,2 C 16,1 C 44 % 1029,6 hPa 0,0 l/m 2 min 0 min 0,6 UV-I 396 W/m 2,6 km/h (1 Bft)
12.03.2014 15:24 18,2 C 16,1 C 46 % 1029,7 hPa 0,0 l/m 2 min 0 min 0,6 UV-I 394 W/m 2,6 km/h (1 Bft)
12.03.2014 15:26 18,3 C 16,1 C 45 % 1029,6 hPa 0,0 l/m 2 min 0 min 0,6 UV-I 394 W/m 12,9 km/h (3 Bft)
12.03.2014 15:28 18,4 C 16,1 C 44 % 1029,6 hPa 0,0 l/m 2 min 0 min 0,5 UV-I 387 W/m 7,7 km/h (2 Bft)
12.03.2014 15:30 18,4 C 16,1 C 45 % 1029,6 hPa 0,0 l/m 2 min 0 min 0,5 UV-I 388 W/m 2,6 km/h (1 Bft)
12.03.2014 15:32 18,5 C 16,1 C 45 % 1029,6 hPa 0,0 l/m 2 min 0 min 0,5 UV-I 388 W/m 2,6 km/h (1 Bft)
12.03.2014 15:34 18,6 C 16,1 C 47 % 1029,6 hPa 0,0 l/m 2 min 0 min 0,5 UV-I 381 W/m 2,6 km/h (1 Bft)
12.03.2014 15:36 18,7 C 16,1 C 46 % 1029,6 hPa 0,0 l/m 2 min 0 min 0,5 UV-I 383 W/m 2,6 km/h (1 Bft)
12.03.2014 15:38 18,8 C 16,1 C 47 % 1029,6 hPa 0,0 l/m 2 min 0 min 0,0 UV-I 374 W/m 10,3 km/h (2 Bft)
12.03.2014 15:40 18,8 C 16,1 C 46 % 1029,6 hPa 0,0 l/m 2 min 0 min 0,0 UV-I 357 W/m 0,0 km/h (0 Bft)
12.03.2014 15:42 18,7 C 16,1 C 44 % 1029,6 hPa 0,0 l/m 2 min 0 min 0,0 UV-I 353 W/m 7,7 km/h (2 Bft)
12.03.2014 15:44 18,7 C 16,1 C 44 % 1029,6 hPa 0,0 l/m 2 min 0 min 0,0 UV-I 348 W/m 7,7 km/h (2 Bft)
12.03.2014 15:46 18,6 C 16,1 C 44 % 1029,5 hPa 0,0 l/m 2 min 0 min 0,0 UV-I 341 W/m 12,9 km/h (3 Bft)
12.03.2014 15:48 18,5 C 16,1 C 44 % 1029,5 hPa 0,0 l/m 2 min 0 min 0,0 UV-I 339 W/m 0,0 km/h (0 Bft)
12.03.2014 15:50 18,5 C 16,1 C 46 % 1029,5 hPa 0,0 l/m 2 min 0 min 0,0 UV-I 336 W/m 0,0 km/h (0 Bft)
12.03.2014 15:52 18,6 C 16,1 C 44 % 1029,5 hPa 0,0 l/m 2 min 0 min 0,0 UV-I 329 W/m 10,3 km/h (2 Bft)
12.03.2014 15:54 18,7 C 16,1 C 46 % 1029,5 hPa 0,0 l/m 2 min 0 min 0,0 UV-I 325 W/m 0,0 km/h (0 Bft)
12.03.2014 15:56 18,8 C 16,1 C 46 % 1029,5 hPa 0,0 l/m 2 min 0 min 0,0 UV-I 320 W/m 2,6 km/h (1 Bft)
12.03.2014 15:58 18,8 C 16,1 C 46 % 1029,5 hPa 0,0 l/m 2 min 0 min 0,0 UV-I 311 W/m 2,6 km/h (1 Bft)
12.03.2014 16:00 18,8 C 16,1 C 46 % 1029,5 hPa 0,0 l/m 2 min 0 min 0,0 UV-I 309 W/m 0,0 km/h (0 Bft)
12.03.2014 16:02 18,8 C 15,6 C 45 % 1029,5 hPa 0,0 l/m 2 min 0 min 0,0 UV-I 309 W/m 0,0 km/h (0 Bft)
12.03.2014 16:04 18,6 C 15,6 C 44 % 1029,5 hPa 0,0 l/m 2 min 0 min 0,0 UV-I 304 W/m 0,0 km/h (0 Bft)
12.03.2014 16:06 18,4 C 15,6 C 45 % 1029,5 hPa 0,0 l/m 2 min 0 min 0,0 UV-I 301 W/m 10,3 km/h (2 Bft)
12.03.2014 16:08 18,5 C 15,6 C 46 % 1029,4 hPa 0,0 l/m 2 min 0 min 0,0 UV-I 292 W/m 2,6 km/h (1 Bft)
12.03.2014 16:10 18,6 C 15,6 C 44 % 1029,4 hPa 0,0 l/m 2 min 0 min 0,0 UV-I 285 W/m 0,0 km/h (0 Bft)
12.03.2014 16:12 18,6 C 15,6 C 45 % 1029,5 hPa 0,0 l/m 2 min 0 min 0,0 UV-I 281 W/m 0,0 km/h (0 Bft)
12.03.2014 16:14 18,6 C 15,6 C 44 % 1029,4 hPa 0,0 l/m 2 min 0 min 0,0 UV-I 276 W/m 0,0 km/h (0 Bft)
12.03.2014 16:16 18,6 C 15,6 C 46 % 1029,4 hPa 0,0 l/m 2 min 0 min 0,0 UV-I 272 W/m 0,0 km/h (0 Bft)
12.03.2014 16:18 18,5 C 15,6 C 45 % 1029,4 hPa 0,0 l/m 2 min 0 min 0,0 UV-I 269 W/m 2,6 km/h (1 Bft)
12.03.2014 16:20 18,4 C 15,0 C 45 % 1029,3 hPa 0,0 l/m 2 min 0 min 0,0 UV-I 267 W/m 0,0 km/h (0 Bft)
12.03.2014 16:22 18,4 C 15,0 C 44 % 1029,3 hPa 0,0 l/m 2 min 0 min 0,0 UV-I 260 W/m 0,0 km/h (0 Bft)
12.03.2014 16:24 18,3 C 15,6 C 45 % 1029,3 hPa 0,0 l/m 2 min 0 min 0,0 UV-I 255 W/m 2,6 km/h (1 Bft)
12.03.2014 16:26 18,3 C 15,0 C 44 % 1029,3 hPa 0,0 l/m 2 min 0 min 0,0 UV-I 251 W/m 0,0 km/h (0 Bft)
12.03.2014 16:28 18,2 C 15,0 C 46 % 1029,3 hPa 0,0 l/m 2 min 0 min 0,0 UV-I 248 W/m 2,6 km/h (1 Bft)
12.03.2014 16:30 18,2 C 15,0 C 46 % 1029,2 hPa 0,0 l/m 2 min 0 min 0,0 UV-I 246 W/m 0,0 km/h (0 Bft)
12.03.2014 16:32 18,1 C 15,0 C 45 % 1029,2 hPa 0,0 l/m 2 min 0 min 0,0 UV-I 237 W/m 0,0 km/h (0 Bft)
12.03.2014 16:34 18,1 C 15,0 C 46 % 1029,2 hPa 0,0 l/m 2 min 0 min 0,0 UV-I 234 W/m 2,6 km/h (1 Bft)
12.03.2014 16:36 18,1 C 15,0 C 46 % 1029,2 hPa 0,0 l/m 2 min 0 min 0,0 UV-I 229 W/m 0,0 km/h (0 Bft)
12.03.2014 16:38 18,0 C 15,0 C 46 % 1029,2 hPa 0,0 l/m 2 min 0 min 0,0 UV-I 218 W/m 0,0 km/h (0 Bft)
12.03.2014 16:40 17,9 C 15,0 C 45 % 1029,2 hPa 0,0 l/m 2 min 0 min 0,0 UV-I 213 W/m 0,0 km/h (0 Bft)
12.03.2014 16:42 18,0 C 15,0 C 46 % 1029,2 hPa 0,0 l/m 2 min 0 min 0,0 UV-I 213 W/m 2,6 km/h (1 Bft)
12.03.2014 16:44 17,9 C 15,0 C 45 % 1029,1 hPa 0,0 l/m 2 min 0 min 0,0 UV-I 207 W/m 0,0 km/h (0 Bft)
12.03.2014 16:46 17,8 C 15,0 C 45 % 1029,1 hPa 0,0 l/m 2 min 0 min 0,0 UV-I 204 W/m 0,0 km/h (0 Bft)
12.03.2014 16:48 17,8 C 14,4 C 46 % 1029,1 hPa 0,0 l/m 2 min 0 min 0,0 UV-I 199 W/m 2,6 km/h (1 Bft)
12.03.2014 16:50 17,7 C 14,4 C 48 % 1029,1 hPa 0,0 l/m 2 min 0 min 0,0 UV-I 192 W/m 0,0 km/h (0 Bft)
12.03.2014 16:52 17,6 C 14,4 C 48 % 1029,1 hPa 0,0 l/m 2 min 0 min 0,0 UV-I 188 W/m 0,0 km/h (0 Bft)
12.03.2014 16:54 17,7 C 14,4 C 47 % 1029,1 hPa 0,0 l/m 2 min 0 min 0,0 UV-I 183 W/m 2,6 km/h (1 Bft)
12.03.2014 16:56 17,8 C 14,4 C 46 % 1029,1 hPa 0,0 l/m 2 min 0 min 0,0 UV-I 176 W/m 0,0 km/h (0 Bft)
12.03.2014 16:58 17,8 C 15,0 C 46 % 1029,1 hPa 0,0 l/m 2 min 0 min 0,0 UV-I 172 W/m 2,6 km/h (1 Bft)
12.03.2014 17:00 17,8 C 15,0 C 46 % 1029,1 hPa 0,0 l/m 2 min 0 min 0,0 UV-I 169 W/m 0,0 km/h (0 Bft)
12.03.2014 17:02 17,8 C 15,0 C 46 % 1029,0 hPa 0,0 l/m 2 min 0 min 0,0 UV-I 162 W/m 10,3 km/h (2 Bft)
12.03.2014 17:04 17,8 C 15,0 C 46 % 1029,0 hPa 0,0 l/m 2 min 0 min 0,0 UV-I 156 W/m 5,1 km/h (1 Bft)
12.03.2014 17:06 17,7 C 15,0 C 46 % 1029,0 hPa 0,0 l/m 2 min 0 min 0,0 UV-I 151 W/m 10,3 km/h (2 Bft)
12.03.2014 17:08 17,7 C 15,0 C 47 % 1029,0 hPa 0,0 l/m 2 min 0 min 0,0 UV-I 144 W/m 2,6 km/h (1 Bft)
12.03.2014 17:10 17,6 C 15,0 C 47 % 1029,0 hPa 0,0 l/m 2 min 0 min 0,0 UV-I 139 W/m 0,0 km/h (0 Bft)
12.03.2014 17:12 17,5 C 14,4 C 49 % 1029,0 hPa 0,0 l/m 2 min 0 min 0,0 UV-I 134 W/m 0,0 km/h (0 Bft)
12.03.2014 17:14 17,3 C 13,9 C 49 % 1029,0 hPa 0,0 l/m 2 min 0 min 0,0 UV-I 127 W/m 0,0 km/h (0 Bft)
12.03.2014 17:16 17,2 C 13,9 C 51 % 1029,0 hPa 0,0 l/m 2 min 0 min 0,0 UV-I 123 W/m 0,0 km/h (0 Bft)
12.03.2014 17:18 17,1 C 13,9 C 49 % 1028,9 hPa 0,0 l/m 2 min 0 min 0,0 UV-I 118 W/m 2,6 km/h (1 Bft)
12.03.2014 17:20 17,2 C 13,9 C 48 % 1028,9 hPa 0,0 l/m 2 min 0 min 0,0 UV-I 113 W/m 2,6 km/h (1 Bft)
12.03.2014 17:22 17,1 C 13,9 C 50 % 1028,9 hPa 0,0 l/m 2 min 0 min 0,0 UV-I 109 W/m 0,0 km/h (0 Bft)
12.03.2014 17:24 17,0 C 13,3 C 50 % 1028,9 hPa 0,0 l/m 2 min 0 min 0,0 UV-I 102 W/m 0,0 km/h (0 Bft)
12.03.2014 17:26 16,9 C 13,3 C 50 % 1028,9 hPa 0,0 l/m 2 min 0 min 0,0 UV-I 98 W/m 0,0 km/h (0 Bft)
12.03.2014 17:28 16,8 C 13,3 C 50 % 1028,9 hPa 0,0 l/m 2 min 0 min 0,0 UV-I 93 W/m 0,0 km/h (0 Bft)
12.03.2014 17:30 16,8 C 13,3 C 50 % 1028,9 hPa 0,0 l/m 2 min 0 min 0,0 UV-I 88 W/m 0,0 km/h (0 Bft)
12.03.2014 17:32 16,8 C 13,3 C 51 % 1028,9 hPa 0,0 l/m 0 min 0 min 0,0 UV-I 77 W/m 0,0 km/h (0 Bft)
12.03.2014 17:34 16,7 C 12,8 C 51 % 1028,9 hPa 0,0 l/m 0 min 0 min 0,0 UV-I 70 W/m 0,0 km/h (0 Bft)
12.03.2014 17:36 16,6 C 12,8 C 51 % 1028,9 hPa 0,0 l/m 0 min 0 min 0,0 UV-I 74 W/m 0,0 km/h (0 Bft)
12.03.2014 17:38 16,5 C 12,8 C 53 % 1028,8 hPa 0,0 l/m 0 min 0 min 0,0 UV-I 72 W/m 0,0 km/h (0 Bft)
12.03.2014 17:40 16,3 C 12,2 C 52 % 1028,9 hPa 0,0 l/m 0 min 0 min 0,0 UV-I 67 W/m 0,0 km/h (0 Bft)
12.03.2014 17:42 16,3 C 12,2 C 53 % 1028,9 hPa 0,0 l/m 0 min 0 min 0,0 UV-I 63 W/m 0,0 km/h (0 Bft)
12.03.2014 17:44 16,3 C 12,2 C 53 % 1028,8 hPa 0,0 l/m 0 min 0 min 0,0 UV-I 58 W/m 0,0 km/h (0 Bft)
12.03.2014 17:46 16,3 C 12,2 C 52 % 1028,8 hPa 0,0 l/m 0 min 0 min 0,0 UV-I 56 W/m 0,0 km/h (0 Bft)
12.03.2014 17:48 16,2 C 12,2 C 52 % 1028,9 hPa 0,0 l/m 0 min 0 min 0,0 UV-I 47 W/m 0,0 km/h (0 Bft)
12.03.2014 17:50 16,3 C 11,7 C 52 % 1028,8 hPa 0,0 l/m 0 min 0 min 0,0 UV-I 47 W/m 0,0 km/h (0 Bft)
12.03.2014 17:52 16,3 C 11,7 C 52 % 1028,9 hPa 0,0 l/m 0 min 0 min 0,0 UV-I 44 W/m 0,0 km/h (0 Bft)
12.03.2014 17:54 16,3 C 11,7 C 52 % 1028,9 hPa 0,0 l/m 0 min 0 min 0,0 UV-I 37 W/m 2,6 km/h (1 Bft)
12.03.2014 17:56 16,3 C 12,2 C 52 % 1028,9 hPa 0,0 l/m 0 min 0 min 0,0 UV-I 33 W/m 0,0 km/h (0 Bft)
12.03.2014 17:58 16,2 C 12,8 C 52 % 1028,8 hPa 0,0 l/m 0 min 0 min 0,0 UV-I 30 W/m 0,0 km/h (0 Bft)
12.03.2014 18:00 16,2 C 12,8 C 53 % 1028,8 hPa 0,0 l/m 0 min 0 min 0,0 UV-I 28 W/m 2,6 km/h (1 Bft)
12.03.2014 18:02 16,1 C 12,8 C 53 % 1028,8 hPa 0,0 l/m 0 min 0 min 0,0 UV-I 26 W/m 0,0 km/h (0 Bft)
12.03.2014 18:04 15,9 C 12,8 C 54 % 1028,8 hPa 0,0 l/m 0 min 0 min 0,0 UV-I 25 W/m 0,0 km/h (0 Bft)
12.03.2014 18:06 15,7 C 12,8 C 55 % 1028,8 hPa 0,0 l/m 0 min 0 min 0,0 UV-I 23 W/m 0,0 km/h (0 Bft)
12.03.2014 18:08 15,5 C 12,2 C 55 % 1028,8 hPa 0,0 l/m 0 min 0 min 0,0 UV-I 21 W/m 0,0 km/h (0 Bft)
12.03.2014 18:10 15,4 C 12,2 C 56 % 1028,9 hPa 0,0 l/m 0 min 0 min 0,0 UV-I 19 W/m 2,6 km/h (1 Bft)
12.03.2014 18:12 15,3 C 12,2 C 56 % 1028,9 hPa 0,0 l/m 0 min 0 min 0,0 UV-I 18 W/m 0,0 km/h (0 Bft)
12.03.2014 18:14 15,3 C 12,2 C 56 % 1029,0 hPa 0,0 l/m 0 min 0 min 0,0 UV-I 16 W/m 0,0 km/h (0 Bft)
12.03.2014 18:16 15,3 C 12,2 C 56 % 1028,9 hPa 0,0 l/m 0 min 0 min 0,0 UV-I 16 W/m 2,6 km/h (1 Bft)
12.03.2014 18:18 15,2 C 12,2 C 57 % 1028,9 hPa 0,0 l/m 0 min 0 min 0,0 UV-I 12 W/m 0,0 km/h (0 Bft)
12.03.2014 18:20 15,1 C 12,2 C 57 % 1028,9 hPa 0,0 l/m 0 min 0 min 0,0 UV-I 12 W/m 2,6 km/h (1 Bft)
12.03.2014 18:22 15,0 C 12,2 C 57 % 1028,9 hPa 0,0 l/m 0 min 0 min 0,0 UV-I 11 W/m 0,0 km/h (0 Bft)
12.03.2014 18:24 14,9 C 12,2 C 57 % 1029,0 hPa 0,0 l/m 0 min 0 min 0,0 UV-I 9 W/m 0,0 km/h (0 Bft)
12.03.2014 18:26 14,8 C 11,7 C 57 % 1029,0 hPa 0,0 l/m 0 min 0 min 0,0 UV-I 9 W/m 0,0 km/h (0 Bft)
12.03.2014 18:28 14,7 C 11,7 C 57 % 1028,9 hPa 0,0 l/m 0 min 0 min 0,0 UV-I 7 W/m 2,6 km/h (1 Bft)
12.03.2014 18:30 14,7 C 11,7 C 58 % 1029,0 hPa 0,0 l/m 0 min 0 min 0,0 UV-I 7 W/m 0,0 km/h (0 Bft)
12.03.2014 18:32 14,6 C 11,7 C 58 % 1029,1 hPa 0,0 l/m 0 min 0 min 0,0 UV-I 5 W/m 2,6 km/h (1 Bft)
12.03.2014 18:34 14,4 C 11,7 C 58 % 1029,1 hPa 0,0 l/m 0 min 0 min 0,0 UV-I 5 W/m 0,0 km/h (0 Bft)
12.03.2014 18:36 14,4 C 11,7 C 58 % 1029,0 hPa 0,0 l/m 0 min 0 min 0,0 UV-I 5 W/m 0,0 km/h (0 Bft)
12.03.2014 18:38 14,3 C 11,1 C 58 % 1029,1 hPa 0,0 l/m 0 min 0 min 0,0 UV-I 0 W/m 0,0 km/h (0 Bft)
12.03.2014 18:40 14,2 C 11,1 C 58 % 1029,1 hPa 0,0 l/m 0 min 0 min 0,0 UV-I 0 W/m 0,0 km/h (0 Bft)
12.03.2014 18:42 14,2 C 11,1 C 59 % 1029,1 hPa 0,0 l/m 0 min 0 min 0,0 UV-I 0 W/m 0,0 km/h (0 Bft)
12.03.2014 18:44 14,2 C 10,6 C 59 % 1029,1 hPa 0,0 l/m 0 min 0 min 0,0 UV-I 0 W/m 0,0 km/h (0 Bft)
12.03.2014 18:46 14,0 C 10,6 C 59 % 1029,2 hPa 0,0 l/m 0 min 0 min 0,0 UV-I 0 W/m 0,0 km/h (0 Bft)
12.03.2014 18:48 13,8 C 10,0 C 60 % 1029,1 hPa 0,0 l/m 0 min 0 min 0,0 UV-I 0 W/m 0,0 km/h (0 Bft)
12.03.2014 18:50 13,5 C 10,0 C 62 % 1029,2 hPa 0,0 l/m 0 min 0 min 0,0 UV-I 0 W/m 0,0 km/h (0 Bft)
12.03.2014 18:52 13,2 C 10,0 C 62 % 1029,2 hPa 0,0 l/m 0 min 0 min 0,0 UV-I 0 W/m 0,0 km/h (0 Bft)
12.03.2014 18:54 13,1 C 9,4 C 63 % 1029,2 hPa 0,0 l/m 0 min 0 min 0,0 UV-I 0 W/m 0,0 km/h (0 Bft)
12.03.2014 18:56 12,8 C 9,4 C 63 % 1029,1 hPa 0,0 l/m 0 min 0 min 0,0 UV-I 0 W/m 0,0 km/h (0 Bft)
12.03.2014 18:58 12,6 C 9,4 C 64 % 1029,2 hPa 0,0 l/m 0 min 0 min 0,0 UV-I 0 W/m 0,0 km/h (0 Bft)
12.03.2014 19:00 12,4 C 8,9 C 65 % 1029,2 hPa 0,0 l/m 0 min 0 min 0,0 UV-I 0 W/m 0,0 km/h (0 Bft)
12.03.2014 19:02 12,2 C 8,9 C 66 % 1029,2 hPa 0,0 l/m 0 min 0 min 0,0 UV-I 0 W/m 0,0 km/h (0 Bft)
12.03.2014 19:04 12,1 C 8,9 C 66 % 1029,2 hPa 0,0 l/m 0 min 0 min 0,0 UV-I 0 W/m 0,0 km/h (0 Bft)
12.03.2014 19:06 11,9 C 8,9 C 67 % 1029,2 hPa 0,0 l/m 0 min 0 min 0,0 UV-I 0 W/m 0,0 km/h (0 Bft)
12.03.2014 19:08 11,9 C 8,9 C 67 % 1029,2 hPa 0,0 l/m 0 min 0 min 0,0 UV-I 0 W/m 0,0 km/h (0 Bft)
12.03.2014 19:10 11,8 C 8,3 C 68 % 1029,2 hPa 0,0 l/m 0 min 0 min 0,0 UV-I 0 W/m 0,0 km/h (0 Bft)
12.03.2014 19:12 11,8 C 8,3 C 68 % 1029,3 hPa 0,0 l/m 0 min 0 min 0,0 UV-I 0 W/m 0,0 km/h (0 Bft)
12.03.2014 19:14 11,7 C 8,3 C 69 % 1029,3 hPa 0,0 l/m 0 min 0 min 0,0 UV-I 0 W/m 0,0 km/h (0 Bft)
12.03.2014 19:16 11,6 C 8,3 C 69 % 1029,3 hPa 0,0 l/m 0 min 0 min 0,0 UV-I 0 W/m 0,0 km/h (0 Bft)
12.03.2014 19:18 11,6 C 8,3 C 69 % 1029,3 hPa 0,0 l/m 0 min 0 min 0,0 UV-I 0 W/m 0,0 km/h (0 Bft)
12.03.2014 19:20 11,4 C 8,3 C 69 % 1029,3 hPa 0,0 l/m 0 min 0 min 0,0 UV-I 0 W/m 0,0 km/h (0 Bft)
12.03.2014 19:22 11,4 C 7,8 C 70 % 1029,3 hPa 0,0 l/m 0 min 0 min 0,0 UV-I 0 W/m 0,0 km/h (0 Bft)
12.03.2014 19:24 11,3 C 7,8 C 70 % 1029,3 hPa 0,0 l/m 0 min 0 min 0,0 UV-I 0 W/m 0,0 km/h (0 Bft)
12.03.2014 19:26 11,2 C 7,8 C 70 % 1029,3 hPa 0,0 l/m 0 min 0 min 0,0 UV-I 0 W/m 0,0 km/h (0 Bft)
12.03.2014 19:28 11,1 C 7,8 C 71 % 1029,3 hPa 0,0 l/m 0 min 0 min 0,0 UV-I 0 W/m 0,0 km/h (0 Bft)
12.03.2014 19:30 10,9 C 7,8 C 71 % 1029,2 hPa 0,0 l/m 0 min 0 min 0,0 UV-I 0 W/m 0,0 km/h (0 Bft)
12.03.2014 19:32 10,8 C 7,8 C 71 % 1029,3 hPa 0,0 l/m 0 min 0 min 0,0 UV-I 0 W/m 0,0 km/h (0 Bft)
12.03.2014 19:34 10,7 C 7,8 C 72 % 1029,2 hPa 0,0 l/m 0 min 0 min 0,0 UV-I 0 W/m 0,0 km/h (0 Bft)
12.03.2014 19:36 10,6 C 7,8 C 72 % 1029,2 hPa 0,0 l/m 0 min 0 min 0,0 UV-I 0 W/m 0,0 km/h (0 Bft)
12.03.2014 19:38 10,4 C 7,2 C 73 % 1029,2 hPa 0,0 l/m 0 min 0 min 0,0 UV-I 0 W/m 0,0 km/h (0 Bft)
12.03.2014 19:40 10,4 C 7,2 C 73 % 1029,2 hPa 0,0 l/m 0 min 0 min 0,0 UV-I 0 W/m 0,0 km/h (0 Bft)
12.03.2014 19:42 10,3 C 7,2 C 73 % 1029,2 hPa 0,0 l/m 0 min 0 min 0,0 UV-I 0 W/m 0,0 km/h (0 Bft)
12.03.2014 19:44 10,3 C 7,2 C 73 % 1029,2 hPa 0,0 l/m 0 min 0 min 0,0 UV-I 0 W/m 0,0 km/h (0 Bft)
12.03.2014 19:46 10,2 C 7,2 C 74 % 1029,2 hPa 0,0 l/m 0 min 0 min 0,0 UV-I 0 W/m 0,0 km/h (0 Bft)
12.03.2014 19:48 10,1 C 7,2 C 74 % 1029,3 hPa 0,0 l/m 0 min 0 min 0,0 UV-I 0 W/m 0,0 km/h (0 Bft)
12.03.2014 19:50 10,1 C 7,2 C 74 % 1029,3 hPa 0,0 l/m 0 min 0 min 0,0 UV-I 0 W/m 0,0 km/h (0 Bft)
12.03.2014 19:52 10,0 C 7,2 C 74 % 1029,3 hPa 0,0 l/m 0 min 0 min 0,0 UV-I 0 W/m 0,0 km/h (0 Bft)
12.03.2014 19:54 9,9 C 6,7 C 75 % 1029,2 hPa 0,0 l/m 0 min 0 min 0,0 UV-I 0 W/m 0,0 km/h (0 Bft)
12.03.2014 19:56 9,9 C 6,7 C 75 % 1029,3 hPa 0,0 l/m 0 min 0 min 0,0 UV-I 0 W/m 0,0 km/h (0 Bft)
12.03.2014 19:58 9,8 C 6,7 C 75 % 1029,3 hPa 0,0 l/m 0 min 0 min 0,0 UV-I 0 W/m 0,0 km/h (0 Bft)
12.03.2014 20:00 9,7 C 6,7 C 75 % 1029,3 hPa 0,0 l/m 0 min 0 min 0,0 UV-I 0 W/m 0,0 km/h (0 Bft)
12.03.2014 20:02 9,7 C 6,7 C 75 % 1029,2 hPa 0,0 l/m 0 min 0 min 0,0 UV-I 0 W/m 0,0 km/h (0 Bft)
12.03.2014 20:04 9,6 C 6,7 C 76 % 1029,3 hPa 0,0 l/m 0 min 0 min 0,0 UV-I 0 W/m 0,0 km/h (0 Bft)
12.03.2014 20:06 9,5 C 6,7 C 75 % 1029,2 hPa 0,0 l/m 0 min 0 min 0,0 UV-I 0 W/m 0,0 km/h (0 Bft)
12.03.2014 20:08 9,4 C 6,7 C 76 % 1029,2 hPa 0,0 l/m 0 min 0 min 0,0 UV-I 0 W/m 0,0 km/h (0 Bft)
12.03.2014 20:10 9,4 C 6,7 C 76 % 1029,2 hPa 0,0 l/m 0 min 0 min 0,0 UV-I 0 W/m 0,0 km/h (0 Bft)
12.03.2014 20:12 9,3 C 6,7 C 76 % 1029,3 hPa 0,0 l/m 0 min 0 min 0,0 UV-I 0 W/m 0,0 km/h (0 Bft)
12.03.2014 20:14 9,3 C 6,7 C 76 % 1029,3 hPa 0,0 l/m 0 min 0 min 0,0 UV-I 0 W/m 0,0 km/h (0 Bft)
12.03.2014 20:16 9,2 C 6,1 C 76 % 1029,3 hPa 0,0 l/m 0 min 0 min 0,0 UV-I 0 W/m 0,0 km/h (0 Bft)
12.03.2014 20:18 9,2 C 6,1 C 79 % 1029,3 hPa 0,0 l/m 0 min 0 min 0,0 UV-I 0 W/m 0,0 km/h (0 Bft)
12.03.2014 20:20 9,1 C 6,1 C 77 % 1029,2 hPa 0,0 l/m 0 min 0 min 0,0 UV-I 0 W/m 0,0 km/h (0 Bft)
12.03.2014 20:22 9,0 C 6,1 C 77 % 1029,2 hPa 0,0 l/m 0 min 0 min 0,0 UV-I 0 W/m 0,0 km/h (0 Bft)
12.03.2014 20:24 8,9 C 6,1 C 77 % 1029,3 hPa 0,0 l/m 0 min 0 min 0,0 UV-I 0 W/m 0,0 km/h (0 Bft)
12.03.2014 20:26 8,8 C 6,1 C 78 % 1029,3 hPa 0,0 l/m 0 min 0 min 0,0 UV-I 0 W/m 0,0 km/h (0 Bft)
12.03.2014 20:28 8,8 C 6,1 C 78 % 1029,2 hPa 0,0 l/m 0 min 0 min 0,0 UV-I 0 W/m 0,0 km/h (0 Bft)
12.03.2014 20:30 8,8 C 6,1 C 77 % 1029,3 hPa 0,0 l/m 0 min 0 min 0,0 UV-I 0 W/m 0,0 km/h (0 Bft)
12.03.2014 20:32 8,8 C 6,1 C 77 % 1029,3 hPa 0,0 l/m 0 min 0 min 0,0 UV-I 0 W/m 0,0 km/h (0 Bft)
12.03.2014 20:34 8,7 C 6,1 C 77 % 1029,2 hPa 0,0 l/m 0 min 0 min 0,0 UV-I 0 W/m 0,0 km/h (0 Bft)
12.03.2014 20:36 8,7 C 5,6 C 78 % 1029,2 hPa 0,0 l/m 0 min 0 min 0,0 UV-I 0 W/m 0,0 km/h (0 Bft)
12.03.2014 20:38 8,6 C 5,6 C 78 % 1029,2 hPa 0,0 l/m 0 min 0 min 0,0 UV-I 0 W/m 0,0 km/h (0 Bft)
12.03.2014 20:40 8,6 C 5,6 C 78 % 1029,2 hPa 0,0 l/m 0 min 0 min 0,0 UV-I 0 W/m 0,0 km/h (0 Bft)
12.03.2014 20:42 8,5 C 5,6 C 78 % 1029,1 hPa 0,0 l/m 0 min 0 min 0,0 UV-I 0 W/m 0,0 km/h (0 Bft)
12.03.2014 20:44 8,4 C 5,6 C 79 % 1029,2 hPa 0,0 l/m 0 min 0 min 0,0 UV-I 0 W/m 0,0 km/h (0 Bft)
12.03.2014 20:46 8,4 C 5,6 C 79 % 1029,1 hPa 0,0 l/m 0 min 0 min 0,0 UV-I 0 W/m 0,0 km/h (0 Bft)
12.03.2014 20:48 8,3 C 5,6 C 79 % 1029,1 hPa 0,0 l/m 0 min 0 min 0,0 UV-I 0 W/m 0,0 km/h (0 Bft)
12.03.2014 20:50 8,2 C 5,6 C 79 % 1029,1 hPa 0,0 l/m 0 min 0 min 0,0 UV-I 0 W/m 0,0 km/h (0 Bft)
12.03.2014 20:52 8,1 C 5,6 C 79 % 1029,1 hPa 0,0 l/m 0 min 0 min 0,0 UV-I 0 W/m 0,0 km/h (0 Bft)
12.03.2014 20:54 8,1 C 5,6 C 80 % 1029,0 hPa 0,0 l/m 0 min 0 min 0,0 UV-I 0 W/m 0,0 km/h (0 Bft)
12.03.2014 20:56 8,1 C 5,6 C 80 % 1029,0 hPa 0,0 l/m 0 min 0 min 0,0 UV-I 0 W/m 0,0 km/h (0 Bft)
12.03.2014 20:58 8,0 C 5,6 C 81 % 1029,0 hPa 0,0 l/m 0 min 0 min 0,0 UV-I 0 W/m 0,0 km/h (0 Bft)
12.03.2014 21:00 8,0 C 5,0 C 81 % 1029,1 hPa 0,0 l/m 0 min 0 min 0,0 UV-I 0 W/m 0,0 km/h (0 Bft)
12.03.2014 21:02 7,9 C 5,0 C 81 % 1029,0 hPa 0,0 l/m 0 min 0 min 0,0 UV-I 0 W/m 0,0 km/h (0 Bft)
12.03.2014 21:04 7,9 C 5,0 C 81 % 1029,0 hPa 0,0 l/m 0 min 0 min 0,0 UV-I 0 W/m 0,0 km/h (0 Bft)
12.03.2014 21:06 7,8 C 5,0 C 81 % 1029,1 hPa 0,0 l/m 0 min 0 min 0,0 UV-I 0 W/m 0,0 km/h (0 Bft)
12.03.2014 21:08 7,8 C 5,0 C 81 % 1029,0 hPa 0,0 l/m 0 min 0 min 0,0 UV-I 0 W/m 0,0 km/h (0 Bft)
12.03.2014 21:10 7,7 C 5,0 C 81 % 1029,0 hPa 0,0 l/m 0 min 0 min 0,0 UV-I 0 W/m 0,0 km/h (0 Bft)
12.03.2014 21:12 7,7 C 5,0 C 82 % 1028,9 hPa 0,0 l/m 0 min 0 min 0,0 UV-I 0 W/m 0,0 km/h (0 Bft)
12.03.2014 21:14 7,7 C 5,0 C 82 % 1029,0 hPa 0,0 l/m 0 min 0 min 0,0 UV-I 0 W/m 0,0 km/h (0 Bft)
12.03.2014 21:16 7,7 C 5,0 C 82 % 1028,9 hPa 0,0 l/m 0 min 0 min 0,0 UV-I 0 W/m 0,0 km/h (0 Bft)
12.03.2014 21:18 7,7 C 5,0 C 82 % 1029,0 hPa 0,0 l/m 0 min 0 min 0,0 UV-I 0 W/m 0,0 km/h (0 Bft)
12.03.2014 21:20 7,7 C 5,0 C 82 % 1028,9 hPa 0,0 l/m 0 min 0 min 0,0 UV-I 0 W/m 0,0 km/h (0 Bft)
12.03.2014 21:22 7,7 C 5,0 C 82 % 1029,0 hPa 0,0 l/m 0 min 0 min 0,0 UV-I 0 W/m 0,0 km/h (0 Bft)
12.03.2014 21:24 7,7 C 5,0 C 82 % 1029,0 hPa 0,0 l/m 0 min 0 min 0,0 UV-I 0 W/m 0,0 km/h (0 Bft)
12.03.2014 21:26 7,6 C 5,0 C 82 % 1029,0 hPa 0,0 l/m 0 min 0 min 0,0 UV-I 0 W/m 0,0 km/h (0 Bft)
12.03.2014 21:28 7,6 C 5,0 C 82 % 1029,1 hPa 0,0 l/m 0 min 0 min 0,0 UV-I 0 W/m 0,0 km/h (0 Bft)
12.03.2014 21:30 7,5 C 5,0 C 82 % 1029,0 hPa 0,0 l/m 0 min 0 min 0,0 UV-I 0 W/m 0,0 km/h (0 Bft)
12.03.2014 21:32 7,4 C 5,0 C 82 % 1029,0 hPa 0,0 l/m 0 min 0 min 0,0 UV-I 0 W/m 0,0 km/h (0 Bft)
12.03.2014 21:34 7,3 C 4,4 C 83 % 1029,0 hPa 0,0 l/m 0 min 0 min 0,0 UV-I 0 W/m 0,0 km/h (0 Bft)
12.03.2014 21:36 7,3 C 4,4 C 83 % 1029,0 hPa 0,0 l/m 0 min 0 min 0,0 UV-I 0 W/m 0,0 km/h (0 Bft)
12.03.2014 21:38 7,2 C 4,4 C 83 % 1029,0 hPa 0,0 l/m 0 min 0 min 0,0 UV-I 0 W/m 0,0 km/h (0 Bft)
12.03.2014 21:40 7,2 C 4,4 C 83 % 1029,0 hPa 0,0 l/m 0 min 0 min 0,0 UV-I 0 W/m 0,0 km/h (0 Bft)
12.03.2014 21:42 7,2 C 4,4 C 83 % 1029,0 hPa 0,0 l/m 0 min 0 min 0,0 UV-I 0 W/m 0,0 km/h (0 Bft)
12.03.2014 21:44 7,1 C 4,4 C 83 % 1029,0 hPa 0,0 l/m 0 min 0 min 0,0 UV-I 0 W/m 0,0 km/h (0 Bft)
12.03.2014 21:46 7,0 C 4,4 C 84 % 1029,0 hPa 0,0 l/m 0 min 0 min 0,0 UV-I 0 W/m 0,0 km/h (0 Bft)
12.03.2014 21:48 6,9 C 4,4 C 84 % 1029,0 hPa 0,0 l/m 0 min 0 min 0,0 UV-I 0 W/m 0,0 km/h (0 Bft)
12.03.2014 21:50 6,9 C 4,4 C 84 % 1029,0 hPa 0,0 l/m 0 min 0 min 0,0 UV-I 0 W/m 0,0 km/h (0 Bft)
12.03.2014 21:52 6,9 C 4,4 C 84 % 1029,0 hPa 0,0 l/m 0 min 0 min 0,0 UV-I 0 W/m 0,0 km/h (0 Bft)
12.03.2014 21:54 6,9 C 4,4 C 84 % 1029,0 hPa 0,0 l/m 0 min 0 min 0,0 UV-I 0 W/m 0,0 km/h (0 Bft)
12.03.2014 21:56 6,8 C 4,4 C 84 % 1029,1 hPa 0,0 l/m 0 min 0 min 0,0 UV-I 0 W/m 0,0 km/h (0 Bft)
12.03.2014 21:58 6,8 C 4,4 C 84 % 1029,0 hPa 0,0 l/m 0 min 0 min 0,0 UV-I 0 W/m 0,0 km/h (0 Bft)
12.03.2014 22:00 6,8 C 4,4 C 84 % 1029,1 hPa 0,0 l/m 0 min 0 min 0,0 UV-I 0 W/m 0,0 km/h (0 Bft)
12.03.2014 22:02 6,7 C 4,4 C 84 % 1029,0 hPa 0,0 l/m 0 min 0 min 0,0 UV-I 0 W/m 0,0 km/h (0 Bft)
12.03.2014 22:04 6,7 C 4,4 C 84 % 1029,0 hPa 0,0 l/m 0 min 0 min 0,0 UV-I 0 W/m 0,0 km/h (0 Bft)
12.03.2014 22:06 6,7 C 4,4 C 84 % 1029,0 hPa 0,0 l/m 0 min 0 min 0,0 UV-I 0 W/m 0,0 km/h (0 Bft)
12.03.2014 22:08 6,7 C 3,9 C 84 % 1029,0 hPa 0,0 l/m 0 min 0 min 0,0 UV-I 0 W/m 0,0 km/h (0 Bft)
12.03.2014 22:10 6,7 C 3,9 C 84 % 1028,9 hPa 0,0 l/m 0 min 0 min 0,0 UV-I 0 W/m 0,0 km/h (0 Bft)
12.03.2014 22:12 6,7 C 3,9 C 84 % 1029,0 hPa 0,0 l/m 0 min 0 min 0,0 UV-I 0 W/m 0,0 km/h (0 Bft)
12.03.2014 22:14 6,6 C 3,9 C 84 % 1029,0 hPa 0,0 l/m 0 min 0 min 0,0 UV-I 0 W/m 0,0 km/h (0 Bft)
12.03.2014 22:16 6,5 C 3,9 C 84 % 1029,0 hPa 0,0 l/m 0 min 0 min 0,0 UV-I 0 W/m 0,0 km/h (0 Bft)
12.03.2014 22:18 6,4 C 3,9 C 84 % 1029,0 hPa 0,0 l/m 0 min 0 min 0,0 UV-I 0 W/m 0,0 km/h (0 Bft)
12.03.2014 22:20 6,4 C 3,9 C 84 % 1028,9 hPa 0,0 l/m 0 min 0 min 0,0 UV-I 0 W/m 0,0 km/h (0 Bft)
12.03.2014 22:22 6,4 C 3,9 C 85 % 1029,0 hPa 0,0 l/m 0 min 0 min 0,0 UV-I 0 W/m 0,0 km/h (0 Bft)
12.03.2014 22:24 6,4 C 3,9 C 85 % 1029,0 hPa 0,0 l/m 0 min 0 min 0,0 UV-I 0 W/m 0,0 km/h (0 Bft)
12.03.2014 22:26 6,4 C 3,9 C 85 % 1029,0 hPa 0,0 l/m 0 min 0 min 0,0 UV-I 0 W/m 0,0 km/h (0 Bft)
12.03.2014 22:28 6,4 C 3,9 C 85 % 1029,0 hPa 0,0 l/m 0 min 0 min 0,0 UV-I 0 W/m 0,0 km/h (0 Bft)
12.03.2014 22:30 6,3 C 3,9 C 85 % 1029,0 hPa 0,0 l/m 0 min 0 min 0,0 UV-I 0 W/m 0,0 km/h (0 Bft)
12.03.2014 22:32 6,3 C 3,9 C 85 % 1029,0 hPa 0,0 l/m 0 min 0 min 0,0 UV-I 0 W/m 0,0 km/h (0 Bft)
12.03.2014 22:35 6,2 C 3,9 C 85 % 1028,9 hPa 0,0 l/m 0 min 0 min 0,0 UV-I 0 W/m 0,0 km/h (0 Bft)
12.03.2014 22:40 6,2 C 3,9 C 86 % 1028,9 hPa 0,0 l/m 0 min 0 min 0,0 UV-I 0 W/m 0,0 km/h (0 Bft)
12.03.2014 22:45 6,0 C 3,9 C 86 % 1028,9 hPa 0,0 l/m 0 min 0 min 0,0 UV-I 0 W/m 0,0 km/h (0 Bft)
12.03.2014 22:52 6,0 C 3,9 C 86 % 1028,9 hPa 0,0 l/m 0 min 0 min 0,0 UV-I 0 W/m 0,0 km/h (0 Bft)
12.03.2014 22:54 6,0 C 3,3 C 86 % 1028,9 hPa 0,0 l/m 0 min 0 min 0,0 UV-I 0 W/m 0,0 km/h (0 Bft)
12.03.2014 22:56 5,9 C 3,3 C 86 % 1028,9 hPa 0,0 l/m 0 min 0 min 0,0 UV-I 0 W/m 0,0 km/h (0 Bft)
12.03.2014 22:58 5,9 C 3,3 C 86 % 1028,8 hPa 0,0 l/m 0 min 0 min 0,0 UV-I 0 W/m 0,0 km/h (0 Bft)
12.03.2014 23:00 5,8 C 3,3 C 86 % 1028,8 hPa 0,0 l/m 0 min 0 min 0,0 UV-I 0 W/m 0,0 km/h (0 Bft)
12.03.2014 23:02 5,8 C 3,3 C 86 % 1028,8 hPa 0,0 l/m 0 min 0 min 0,0 UV-I 0 W/m 0,0 km/h (0 Bft)
12.03.2014 23:06 5,7 C 3,3 C 87 % 1028,9 hPa 0,0 l/m 0 min 0 min 0,0 UV-I 0 W/m 0,0 km/h (0 Bft)
12.03.2014 23:08 5,7 C 3,3 C 87 % 1028,8 hPa 0,0 l/m 0 min 0 min 0,0 UV-I 0 W/m 0,0 km/h (0 Bft)
12.03.2014 23:10 5,6 C 3,3 C 87 % 1028,8 hPa 0,0 l/m 0 min 0 min 0,0 UV-I 0 W/m 0,0 km/h (0 Bft)
12.03.2014 23:12 5,6 C 3,3 C 87 % 1028,7 hPa 0,0 l/m 0 min 0 min 0,0 UV-I 0 W/m 0,0 km/h (0 Bft)
12.03.2014 23:14 5,6 C 3,3 C 88 % 1028,8 hPa 0,0 l/m 0 min 0 min 0,0 UV-I 0 W/m 0,0 km/h (0 Bft)
12.03.2014 23:16 5,6 C 3,3 C 88 % 1028,7 hPa 0,0 l/m 0 min 0 min 0,0 UV-I 0 W/m 0,0 km/h (0 Bft)
12.03.2014 23:18 5,6 C 3,3 C 88 % 1028,8 hPa 0,0 l/m 0 min 0 min 0,0 UV-I 0 W/m 0,0 km/h (0 Bft)
12.03.2014 23:20 5,6 C 3,3 C 88 % 1028,9 hPa 0,0 l/m 0 min 0 min 0,0 UV-I 0 W/m 0,0 km/h (0 Bft)
12.03.2014 23:22 5,7 C 3,3 C 88 % 1028,8 hPa 0,0 l/m 0 min 0 min 0,0 UV-I 0 W/m 0,0 km/h (0 Bft)
12.03.2014 23:24 5,6 C 3,3 C 88 % 1028,8 hPa 0,0 l/m 0 min 0 min 0,0 UV-I 0 W/m 0,0 km/h (0 Bft)
12.03.2014 23:26 5,6 C 3,3 C 88 % 1028,8 hPa 0,0 l/m 0 min 0 min 0,0 UV-I 0 W/m 0,0 km/h (0 Bft)
12.03.2014 23:28 5,6 C 3,3 C 88 % 1028,8 hPa 0,0 l/m 0 min 0 min 0,0 UV-I 0 W/m 0,0 km/h (0 Bft)
12.03.2014 23:30 5,5 C 3,3 C 88 % 1028,8 hPa 0,0 l/m 0 min 0 min 0,0 UV-I 0 W/m 0,0 km/h (0 Bft)
12.03.2014 23:32 5,4 C 3,3 C 88 % 1028,8 hPa 0,0 l/m 0 min 0 min 0,0 UV-I 0 W/m 0,0 km/h (0 Bft)
12.03.2014 23:34 5,3 C 3,3 C 88 % 1028,7 hPa 0,0 l/m 0 min 0 min 0,0 UV-I 0 W/m 0,0 km/h (0 Bft)
12.03.2014 23:36 5,3 C 3,3 C 88 % 1028,7 hPa 0,0 l/m 0 min 0 min 0,0 UV-I 0 W/m 0,0 km/h (0 Bft)
12.03.2014 23:38 5,2 C 2,8 C 89 % 1028,7 hPa 0,0 l/m 0 min 0 min 0,0 UV-I 0 W/m 0,0 km/h (0 Bft)
12.03.2014 23:40 5,2 C 2,8 C 89 % 1028,7 hPa 0,0 l/m 0 min 0 min 0,0 UV-I 0 W/m 0,0 km/h (0 Bft)
12.03.2014 23:42 5,2 C 2,8 C 88 % 1028,7 hPa 0,0 l/m 0 min 0 min 0,0 UV-I 0 W/m 0,0 km/h (0 Bft)
12.03.2014 23:44 5,1 C 2,8 C 89 % 1028,7 hPa 0,0 l/m 0 min 0 min 0,0 UV-I 0 W/m 0,0 km/h (0 Bft)
12.03.2014 23:46 5,1 C 2,8 C 89 % 1028,7 hPa 0,0 l/m 0 min 0 min 0,0 UV-I 0 W/m 0,0 km/h (0 Bft)
12.03.2014 23:48 5,1 C 2,8 C 89 % 1028,7 hPa 0,0 l/m 0 min 0 min 0,0 UV-I 0 W/m 0,0 km/h (0 Bft)
12.03.2014 23:50 5,1 C 2,8 C 89 % 1028,7 hPa 0,0 l/m 0 min 0 min 0,0 UV-I 0 W/m 0,0 km/h (0 Bft)
12.03.2014 23:52 5,1 C 2,8 C 89 % 1028,6 hPa 0,0 l/m 0 min 0 min 0,0 UV-I 0 W/m 0,0 km/h (0 Bft)
12.03.2014 23:54 5,1 C 2,8 C 89 % 1028,7 hPa 0,0 l/m 0 min 0 min 0,0 UV-I 0 W/m 0,0 km/h (0 Bft)
12.03.2014 23:56 5,1 C 2,8 C 89 % 1028,6 hPa 0,0 l/m 0 min 0 min 0,0 UV-I 0 W/m 0,0 km/h (0 Bft)
12.03.2014 23:58 5,0 C 2,8 C 89 % 1028,6 hPa 0,0 l/m 0 min 0 min 0,0 UV-I 0 W/m 0,0 km/h (0 Bft)
_ Min-Zeit 07:12 04:10 15:20 23:52 - - - - - 00:00
Minimum _ 3,3 C 1,7 C 43 % 1028,6 hPa - - - - - 0,0 km/h (0 Bft)
_ Max-Zeit 15:14 14:36 05:46 10:44 00:00 08:20 00:00 13:02 13:02 11:48
Maximum _ 18,9 C 16,1 C 96 % 1032,5 hPa 0,0 l/m 2 min 0 min 1,5 UV-I 545 W/m 18,0 km/h
O-SO (3 Bft)
Durchschnitt _ 9,6 C 7,4 C 77 % 1030,7 hPa #0,0 l/m #7:46 h #0 min. 1,0 UV-I 307 W/m 1,7 km/h (1 Bft)
© 2014 W. Hausmann